KC5DAQ-28 Weather Reports


Display with metric or nautical units.
time (UTC)temp
F
wind
direction
speed
MPH
gust
MPH
rain 1hr
in
rain 24hr
in
rain mn
in
humidity
%
barometer
mb
20260510114836 74 144 2.0 5.0 0.00 0.00 0.00 91 1006.3
20260510114731 74 148 2.0 5.0 0.00 0.00 0.00 91 1006.3
20260510114631 74 148 2.0 5.0 0.00 0.00 0.00 91 1006.3
20260510114529 74 154 2.0 5.0 0.00 0.00 0.00 91 1006.3
20260510114427 74 154 2.0 5.0 0.00 0.00 0.00 91 1006.3
20260510114326 74 155 2.0 5.0 0.00 0.00 0.00 91 1006.2
20260510114225 74 155 2.0 5.0 0.00 0.00 0.00 91 1006.2
20260510114124 74 137 1.0 5.0 0.00 0.00 0.00 91 1006.2
20260510114019 74 172 0.0 4.0 0.00 0.00 0.00 91 1006.1
20260510113915 74 155 0.0 4.0 0.00 0.00 0.00 91 1006.1
20260510113812 74 155 1.0 4.0 0.00 0.00 0.00 91 1006.1
20260510113703 74 154 2.0 4.0 0.00 0.00 0.00 91 1006.0
20260510113603 74 152 2.0 5.0 0.00 0.00 0.00 91 1006.1
20260510113502 74 149 2.0 5.0 0.00 0.00 0.00 91 1006.1
20260510113402 74 158 2.0 5.0 0.00 0.00 0.00 91 1006.0
20260510113303 74 147 0.0 5.0 0.00 0.00 0.00 91 1006.0
20260510113202 74 123 0.0 5.0 0.00 0.00 0.00 91 1006.0
20260510113104 74 110 0.0 5.0 0.00 0.00 0.00 91 1006.0
20260510113004 74 109 1.0 5.0 0.00 0.00 0.00 91 1005.9
20260510112902 74 107 2.0 5.0 0.00 0.00 0.00 91 1006.0
20260510112803 74 168 2.0 5.0 0.00 0.00 0.00 91 1005.8
20260510112702 74 120 2.0 5.0 0.00 0.00 0.00 91 1005.8
20260510112604 74 161 2.0 5.0 0.00 0.00 0.00 91 1005.8
20260510112504 74 172 3.0 5.0 0.00 0.00 0.00 91 1005.8
20260510112402 74 111 3.0 5.0 0.00 0.00 0.00 90 1005.8
20260510112305 74 145 2.0 5.0 0.00 0.00 0.00 90 1005.8
20260510112203 74 157 2.0 5.0 0.00 0.00 0.00 90 1005.8
20260510112103 74 127 2.0 5.0 0.00 0.00 0.00 90 1005.8
20260510112003 74 127 2.0 5.0 0.00 0.00 0.00 90 1005.8
20260510111902 74 164 2.0 5.0 0.00 0.00 0.00 90 1005.7
20260510111804 74 165 2.0 5.0 0.00 0.00 0.00 90 1005.7
20260510111703 74 168 1.0 5.0 0.00 0.00 0.00 90 1005.7
20260510111604 74 155 1.0 5.0 0.00 0.00 0.00 90 1005.7
20260510111503 74 147 1.0 5.0 0.00 0.00 0.00 90 1005.6
20260510111403 74 147 2.0 5.0 0.00 0.00 0.00 90 1005.7
20260510111303 74 147 2.0 5.0 0.00 0.00 0.00 90 1005.7
20260510111202 74 155 2.0 5.0 0.00 0.00 0.00 90 1005.6
20260510111102 74 158 2.0 5.0 0.00 0.00 0.00 90 1005.6
20260510111002 74 158 2.0 5.0 0.00 0.00 0.00 90 1005.6
20260510110903 74 182 2.0 5.0 0.00 0.00 0.00 90 1005.6
20260510110802 74 142 3.0 5.0 0.00 0.00 0.00 90 1005.6
20260510110702 74 152 3.0 5.0 0.00 0.00 0.00 90 1005.5
20260510110602 74 134 2.0 5.0 0.00 0.00 0.00 90 1005.5
20260510110503 74 152 2.0 4.0 0.00 0.00 0.00 90 1005.4
20260510110403 74 152 2.0 5.0 0.00 0.00 0.00 90 1005.3
20260510110302 74 151 2.0 5.0 0.00 0.00 0.00 90 1005.3
20260510110203 74 149 2.0 5.0 0.00 0.00 0.00 90 1005.4
20260510110000 74 161 1.0 5.0 0.00 0.00 0.00 90 1005.3
20260510105902 74 154 2.0 5.0 0.00 0.00 0.00 90 1005.4
20260510105802 74 147 2.0 7.0 0.00 0.00 0.00 90 1005.3
20260510105700 74 172 2.0 7.0 0.00 0.00 0.00 90 1005.4
20260510105601 74 173 2.0 7.0 0.00 0.00 0.00 90 1005.4
20260510105502 74 179 2.0 7.0 0.00 0.00 0.00 90 1005.4
20260510105402 74 158 1.0 7.0 0.00 0.00 0.00 90 1005.3
20260510105300 75 161 1.0 7.0 0.00 0.00 0.00 90 1005.3
20260510105201 74 161 2.0 7.0 0.00 0.00 0.00 90 1005.3
20260510105100 75 128 2.0 7.0 0.00 0.00 0.00 90 1005.2
20260510105002 75 165 3.0 7.0 0.00 0.00 0.00 90 1005.3
20260510104900 75 175 2.0 7.0 0.00 0.00 0.00 90 1005.4
20260510104800 75 159 1.0 6.0 0.00 0.00 0.00 90 1005.3
20260510104700 75 159 1.0 6.0 0.00 0.00 0.00 90 1005.4
20260510104600 75 159 1.0 6.0 0.00 0.00 0.00 90 1005.4
20260510104501 75 161 2.0 6.0 0.00 0.00 0.00 90 1005.4
20260510104402 75 161 2.0 6.0 0.00 0.00 0.00 90 1005.4
20260510104300 75 157 2.0 6.0 0.00 0.00 0.00 90 1005.4
20260510104201 74 155 2.0 6.0 0.00 0.00 0.00 90 1005.4
20260510104103 74 175 2.0 5.0 0.00 0.00 0.00 90 1005.4
20260510104001 74 176 2.0 5.0 0.00 0.00 0.00 90 1005.3
20260510103900 74 175 2.0 5.0 0.00 0.00 0.00 90 1005.4
20260510103801 74 179 2.0 5.0 0.00 0.00 0.00 90 1005.3
20260510103700 74 179 0.0 5.0 0.00 0.00 0.00 90 1005.4
20260510103602 74 162 1.0 10.0 0.00 0.00 0.00 90 1005.4
20260510103500 74 161 1.0 10.0 0.00 0.00 0.00 90 1005.5
20260510103400 74 158 1.0 10.0 0.00 0.00 0.00 90 1005.4
20260510103301 74 149 2.0 10.0 0.00 0.00 0.00 91 1005.4
20260510103203 74 173 2.0 10.0 0.00 0.00 0.00 91 1005.5
20260510103100 74 162 2.0 10.0 0.00 0.00 0.00 91 1005.4
20260510103001 74 178 3.0 10.0 0.00 0.00 0.00 91 1005.4
20260510102901 74 155 4.0 10.0 0.00 0.00 0.00 91 1005.4
20260510102801 74 159 5.0 10.0 0.00 0.00 0.00 91 1005.3
20260510102700 74 212 5.0 10.0 0.00 0.00 0.00 91 1005.4
20260510102602 74 111 4.0 6.0 0.00 0.00 0.00 91 1005.3
20260510102501 74 166 3.0 7.0 0.00 0.00 0.00 91 1005.3
20260510102401 74 149 2.0 7.0 0.00 0.00 0.00 91 1005.3
20260510102301 74 152 2.0 7.0 0.00 0.00 0.00 91 1005.3
20260510102200 74 168 2.0 7.0 0.00 0.00 0.00 91 1005.3
20260510102102 74 171 2.0 7.0 0.00 0.00 0.00 91 1005.3
20260510102001 74 176 3.0 9.0 0.00 0.00 0.00 91 1005.2
20260510101901 74 151 4.0 9.0 0.00 0.00 0.00 91 1005.2
20260510101801 74 154 4.0 9.0 0.00 0.00 0.00 91 1005.3
20260510101700 74 141 4.0 9.0 0.00 0.00 0.00 91 1005.3
20260510101600 74 172 4.0 9.0 0.00 0.00 0.00 91 1005.3
20260510101501 74 158 3.0 9.0 0.00 0.00 0.00 91 1005.2
20260510101401 74 158 2.0 10.0 0.00 0.00 0.00 91 1005.2
20260510101259 74 165 3.0 10.0 0.00 0.00 0.00 91 1005.3
20260510101200 74 149 4.0 10.0 0.00 0.00 0.00 91 1005.2
20260510101101 74 131 2.0 10.0 0.00 0.00 0.00 91 1005.2
20260510101000 74 142 2.0 10.0 0.00 0.00 0.00 91 1005.2
20260510100901 74 134 3.0 10.0 0.00 0.00 0.00 91 1005.3
20260510100800 74 162 4.0 10.0 0.00 0.00 0.00 91 1005.3
20260510100701 74 114 4.0 10.0 0.00 0.00 0.00 91 1005.2
20260510100601 74 169 4.0 10.0 0.00 0.00 0.00 91 1005.2
20260510100459 74 157 3.0 10.0 0.00 0.00 0.00 91 1005.3
20260510100401 74 172 2.0 5.0 0.00 0.00 0.00 91 1005.3
20260510100300 74 121 3.0 5.0 0.00 0.00 0.00 91 1005.2
20260510100159 74 148 2.0 5.0 0.00 0.00 0.00 91 1005.3
20260510100059 74 164 2.0 5.0 0.00 0.00 0.00 91 1005.2
20260510100000 74 186 4.0 6.0 0.00 0.00 0.00 92 1005.2
20260510095859 74 155 3.0 6.0 0.00 0.00 0.00 92 1005.2
20260510095759 74 155 2.0 6.0 0.00 0.00 0.00 92 1005.2
20260510095701 74 202 2.0 7.0 0.00 0.00 0.00 92 1005.1
20260510095559 74 133 2.0 7.0 0.00 0.00 0.00 92 1005.2
20260510095501 74 183 1.0 7.0 0.00 0.00 0.00 92 1005.1
20260510095400 74 185 2.0 7.0 0.00 0.00 0.00 92 1005.1
20260510095305 74 155 2.0 7.0 0.00 0.00 0.00 92 1005.1
20260510095200 74 178 3.0 7.0 0.00 0.00 0.00 92 1005.1
20260510095059 74 161 4.0 7.0 0.00 0.00 0.00 92 1005.0
20260510094959 74 159 3.0 7.0 0.00 0.00 0.00 92 1005.0
20260510094859 74 172 4.0 7.0 0.00 0.00 0.00 92 1005.1
20260510094800 74 161 4.0 7.0 0.00 0.00 0.00 92 1005.0
20260510094700 74 183 4.0 7.0 0.00 0.00 0.00 92 1005.1
20260510094601 74 161 3.0 7.0 0.00 0.00 0.00 92 1005.1
20260510094500 74 188 3.0 7.0 0.00 0.00 0.00 92 1005.0
20260510094400 74 118 3.0 7.0 0.00 0.00 0.00 92 1005.0
20260510094300 74 152 3.0 7.0 0.00 0.00 0.00 92 1005.0
20260510094159 74 155 3.0 7.0 0.00 0.00 0.00 92 1005.1
20260510094059 74 147 2.0 3.0 0.00 0.00 0.00 92 1005.1
20260510093959 74 142 2.0 6.0 0.00 0.00 0.00 92 1005.0
20260510093901 74 141 2.0 6.0 0.00 0.00 0.00 92 1005.1
20260510093800 74 141 2.0 6.0 0.00 0.00 0.00 91 1005.1
20260510093658 74 141 2.0 6.0 0.00 0.00 0.00 91 1005.1
20260510093601 74 141 2.0 6.0 0.00 0.00 0.00 91 1005.1
20260510093500 74 138 2.0 6.0 0.00 0.00 0.00 91 1005.1
20260510093401 74 138 1.0 6.0 0.00 0.00 0.00 92 1005.1
20260510093300 74 161 1.0 6.0 0.00 0.00 0.00 91 1005.1
20260510093159 74 161 3.0 7.0 0.00 0.00 0.00 91 1004.9
20260510093058 74 161 3.0 7.0 0.00 0.00 0.00 91 1004.9
20260510092959 74 135 2.0 7.0 0.00 0.00 0.00 91 1004.8
20260510092858 74 140 2.0 7.0 0.00 0.00 0.00 91 1004.9
20260510092759 74 166 2.0 7.0 0.00 0.00 0.00 91 1004.8
20260510092700 74 169 2.0 7.0 0.00 0.00 0.00 91 1004.8
20260510092558 74 168 2.0 7.0 0.00 0.00 0.00 91 1004.9
20260510092459 74 161 2.0 7.0 0.00 0.00 0.00 91 1005.0
20260510092400 74 148 3.0 7.0 0.00 0.00 0.00 91 1005.0
20260510092259 74 154 3.0 7.0 0.00 0.00 0.00 91 1004.9
20260510092159 74 161 3.0 5.0 0.00 0.00 0.00 91 1005.1
20260510092100 74 152 2.0 5.0 0.00 0.00 0.00 91 1005.0
20260510092000 74 148 2.0 5.0 0.00 0.00 0.00 91 1005.0
20260510091900 74 144 3.0 5.0 0.00 0.00 0.00 91 1005.0
20260510091756 74 142 2.0 5.0 0.00 0.00 0.00 91 1005.0
20260510091636 74 157 2.0 5.0 0.00 0.00 0.00 91 1005.1
20260510091532 74 162 3.0 5.0 0.00 0.00 0.00 91 1005.0
20260510091431 74 179 3.0 5.0 0.00 0.00 0.00 91 1005.0
20260510091332 74 176 2.0 5.0 0.00 0.00 0.00 91 1005.0
20260510091231 74 149 2.0 5.0 0.00 0.00 0.00 91 1005.1
20260510091132 74 159 2.0 5.0 0.00 0.00 0.00 91 1005.1
20260510091030 74 155 3.0 5.0 0.00 0.00 0.00 91 1005.0
20260510090927 74 161 3.0 5.0 0.00 0.00 0.00 91 1005.0
20260510090827 74 157 3.0 5.0 0.00 0.00 0.00 91 1005.1
20260510090726 74 161 2.0 5.0 0.00 0.00 0.00 91 1005.0
20260510090617 74 166 1.0 5.0 0.00 0.00 0.00 91 1005.1
20260510090517 74 166 2.0 5.0 0.00 0.00 0.00 91 1005.0
20260510090413 74 169 2.0 5.0 0.00 0.00 0.00 91 1005.0
20260510090311 74 165 1.0 5.0 0.00 0.00 0.00 91 1005.0
20260510090207 74 166 1.0 5.0 0.00 0.00 0.00 91 1005.0
20260510090104 74 166 1.0 5.0 0.00 0.00 0.00 91 1005.1
20260510090004 74 161 0.0 5.0 0.00 0.00 0.00 91 1005.1
20260510085902 74 166 1.0 5.0 0.00 0.00 0.00 91 1005.2
20260510085802 74 168 2.0 5.0 0.00 0.00 0.00 91 1005.2
20260510085702 74 186 2.0 5.0 0.00 0.00 0.00 91 1005.2
20260510085602 74 149 2.0 5.0 0.00 0.00 0.00 91 1005.2
20260510085503 74 137 2.0 5.0 0.00 0.00 0.00 91 1005.2
20260510085402 74 158 2.0 5.0 0.00 0.00 0.00 91 1005.2
20260510085305 74 165 1.0 5.0 0.00 0.00 0.00 91 1005.2
20260510085203 74 162 2.0 5.0 0.00 0.00 0.00 91 1005.2
20260510085102 74 164 2.0 5.0 0.00 0.00 0.00 91 1005.1
20260510085003 74 135 2.0 5.0 0.00 0.00 0.00 91 1005.1
20260510084904 74 135 2.0 5.0 0.00 0.00 0.00 91 1005.1
20260510084801 74 128 1.0 4.0 0.00 0.00 0.00 91 1005.1
20260510084702 74 161 1.0 4.0 0.00 0.00 0.00 91 1005.1
20260510084603 74 164 2.0 4.0 0.00 0.00 0.00 91 1005.1
20260510084505 74 168 2.0 4.0 0.00 0.00 0.00 91 1005.1
20260510084404 74 162 2.0 4.0 0.00 0.00 0.00 91 1005.0
20260510084303 74 144 2.0 4.0 0.00 0.00 0.00 91 1005.1
20260510084203 74 164 2.0 4.0 0.00 0.00 0.00 91 1005.0
20260510084103 74 152 1.0 4.0 0.00 0.00 0.00 91 1005.0
20260510084004 74 151 2.0 4.0 0.00 0.00 0.00 91 1005.0
20260510083904 74 152 2.0 4.0 0.00 0.00 0.00 91 1005.1
20260510083803 74 142 2.0 4.0 0.00 0.00 0.00 91 1005.1
20260510083704 74 147 2.0 4.0 0.00 0.00 0.00 91 1005.0
20260510083602 74 158 2.0 4.0 0.00 0.00 0.00 91 1005.1
20260510083505 74 157 2.0 4.0 0.00 0.00 0.00 91 1005.1
20260510083403 74 152 1.0 3.0 0.00 0.00 0.00 91 1005.1
20260510083304 74 148 1.0 3.0 0.00 0.00 0.00 91 1005.1
20260510083203 74 147 1.0 3.0 0.00 0.00 0.00 90 1005.1
20260510083103 74 157 1.0 3.0 0.00 0.00 0.00 90 1005.0
20260510083002 74 157 2.0 3.0 0.00 0.00 0.00 91 1005.1
20260510082904 74 151 2.0 4.0 0.00 0.00 0.00 90 1005.1
20260510082803 74 152 2.0 4.0 0.00 0.00 0.00 91 1005.1
20260510082703 74 131 2.0 5.0 0.00 0.00 0.00 91 1005.2
20260510082603 74 155 1.0 5.0 0.00 0.00 0.00 91 1005.1
20260510082503 74 164 2.0 5.0 0.00 0.00 0.00 91 1005.1
20260510082402 74 166 2.0 5.0 0.00 0.00 0.00 91 1005.2
20260510082306 74 158 2.0 5.0 0.00 0.00 0.00 90 1005.1
20260510082203 74 161 1.0 5.0 0.00 0.00 0.00 90 1005.1
20260510082104 74 166 2.0 5.0 0.00 0.00 0.00 91 1005.1
20260510082003 74 171 2.0 5.0 0.00 0.00 0.00 91 1005.1
20260510081902 74 151 2.0 5.0 0.00 0.00 0.00 90 1005.1
20260510081804 74 127 2.0 5.0 0.00 0.00 0.00 90 1005.1
20260510081702 74 147 1.0 5.0 0.00 0.00 0.00 90 1005.0
20260510081603 74 145 1.0 5.0 0.00 0.00 0.00 90 1005.1
20260510081504 74 144 2.0 5.0 0.00 0.00 0.00 90 1005.1
20260510081403 74 144 2.0 5.0 0.00 0.00 0.00 90 1005.0
20260510081303 74 138 3.0 5.0 0.00 0.00 0.00 90 1005.0
20260510081202 74 133 3.0 5.0 0.00 0.00 0.00 90 1005.1
20260510081103 74 157 2.0 4.0 0.00 0.00 0.00 90 1005.0
20260510081003 74 109 2.0 4.0 0.00 0.00 0.00 90 1005.1
20260510080904 74 151 1.0 3.0 0.00 0.00 0.00 90 1005.1
20260510080804 74 147 1.0 3.0 0.00 0.00 0.00 90 1005.1
20260510080704 74 147 1.0 3.0 0.00 0.00 0.00 90 1005.1
20260510080603 74 147 1.0 3.0 0.00 0.00 0.00 90 1005.1
20260510080505 74 144 1.0 3.0 0.00 0.00 0.00 90 1005.1
20260510080402 74 144 1.0 3.0 0.00 0.00 0.00 90 1005.1
20260510080302 74 144 1.0 3.0 0.00 0.00 0.00 90 1005.2
20260510080203 74 144 2.0 3.0 0.00 0.00 0.00 90 1005.2
20260510080103 74 144 2.0 3.0 0.00 0.00 0.00 90 1005.2
20260510080005 74 138 1.0 1.0 0.00 0.00 0.00 90 1005.2
20260510075904 74 138 0.0 1.0 0.00 0.00 0.00 90 1005.2
20260510075805 74 138 0.0 1.0 0.00 0.00 0.00 90 1005.3
20260510075704 74 138 0.0 1.0 0.00 0.00 0.00 90 1005.3
20260510075558 74 137 0.0 1.0 0.00 0.00 0.00 90 1005.3
20260510075458 74 137 0.0 1.0 0.00 0.00 0.00 90 1005.4
20260510075358 74 135 0.0 1.0 0.00 0.00 0.00 90 1005.3
20260510075258 74 135 0.0 1.0 0.00 0.00 0.00 90 1005.3
20260510075159 74 135 0.0 1.0 0.00 0.00 0.00 90 1005.3
20260510075057 74 135 0.0 1.0 0.00 0.00 0.00 90 1005.4
20260510074958 74 135 0.0 1.0 0.00 0.00 0.00 89 1005.4
20260510074858 74 135 0.0 1.0 0.00 0.00 0.00 89 1005.4
20260510074756 74 135 0.0 1.0 0.00 0.00 0.00 89 1005.4
20260510074658 75 135 0.0 1.0 0.00 0.00 0.00 89 1005.5
20260510074556 75 135 0.0 2.0 0.00 0.00 0.00 89 1005.5
20260510074458 75 135 0.0 2.0 0.00 0.00 0.00 89 1005.4
20260510074357 75 135 0.0 2.0 0.00 0.00 0.00 89 1005.4
20260510074258 75 135 0.0 2.0 0.00 0.00 0.00 89 1005.4
20260510074158 75 135 0.0 2.0 0.00 0.00 0.00 89 1005.5
20260510074056 75 135 0.0 2.0 0.00 0.00 0.00 89 1005.4
20260510073956 75 135 0.0 2.0 0.00 0.00 0.00 89 1005.4
20260510073856 75 135 0.0 2.0 0.00 0.00 0.00 89 1005.5
20260510073756 75 135 0.0 2.0 0.00 0.00 0.00 89 1005.4
20260510073656 75 135 1.0 2.0 0.00 0.00 0.00 89 1005.5
20260510073557 75 135 1.0 2.0 0.00 0.00 0.00 89 1005.4
20260510073456 75 135 1.0 3.0 0.00 0.00 0.00 89 1005.5
20260510073356 75 135 1.0 3.0 0.00 0.00 0.00 89 1005.5
20260510073257 75 135 0.0 3.0 0.00 0.00 0.00 89 1005.4
20260510073156 75 135 1.0 3.0 0.00 0.00 0.00 89 1005.4
20260510073057 75 135 0.0 3.0 0.00 0.00 0.00 89 1005.4
20260510072957 75 135 0.0 3.0 0.00 0.00 0.00 89 1005.4
20260510072857 75 135 0.0 4.0 0.00 0.00 0.00 89 1005.4
20260510072757 75 135 0.0 4.0 0.00 0.00 0.00 89 1005.4
20260510072655 75 135 1.0 4.0 0.00 0.00 0.00 89 1005.3
20260510072557 75 135 1.0 4.0 0.00 0.00 0.00 89 1005.2
20260510072457 75 135 1.0 4.0 0.00 0.00 0.00 89 1005.3
20260510072355 75 135 1.0 4.0 0.00 0.00 0.00 89 1005.3
20260510072257 75 135 2.0 4.0 0.00 0.00 0.00 89 1005.2
20260510072155 75 110 1.0 4.0 0.00 0.00 0.00 89 1005.3
20260510072056 75 111 1.0 4.0 0.00 0.00 0.00 89 1005.3
20260510071956 75 111 2.0 4.0 0.00 0.00 0.00 89 1005.4
20260510071856 75 114 2.0 4.0 0.00 0.00 0.00 89 1005.3
20260510071757 75 114 2.0 4.0 0.00 0.00 0.00 89 1005.2
20260510071656 75 113 3.0 4.0 0.00 0.00 0.00 89 1005.2
20260510071557 75 103 2.0 4.0 0.00 0.00 0.00 89 1005.3
20260510071456 75 131 1.0 4.0 0.00 0.00 0.00 89 1005.3
20260510071356 75 133 1.0 4.0 0.00 0.00 0.00 89 1005.3
20260510071257 74 135 1.0 4.0 0.00 0.00 0.00 88 1005.2
20260510071157 75 135 2.0 4.0 0.00 0.00 0.00 88 1005.3
20260510071056 75 135 2.0 4.0 0.00 0.00 0.00 88 1005.2
20260510070957 74 130 1.0 4.0 0.00 0.00 0.00 88 1005.2
20260510070855 75 130 1.0 4.0 0.00 0.00 0.00 88 1005.2
20260510070757 75 130 1.0 4.0 0.00 0.00 0.00 88 1005.3
20260510070657 75 131 1.0 4.0 0.00 0.00 0.00 88 1005.2
20260510070556 75 131 1.0 4.0 0.00 0.00 0.00 88 1005.2
20260510070456 75 130 1.0 4.0 0.00 0.00 0.00 88 1005.3
20260510070355 75 140 1.0 4.0 0.00 0.00 0.00 88 1005.2
20260510070256 75 113 2.0 4.0 0.00 0.00 0.00 88 1005.3
20260510070157 75 113 2.0 4.0 0.00 0.00 0.00 88 1005.3
20260510070057 75 145 1.0 3.0 0.00 0.00 0.00 88 1005.2
20260510065956 75 137 2.0 3.0 0.00 0.00 0.00 88 1005.2
20260510065858 75 125 1.0 6.0 0.00 0.00 0.00 88 1005.3
20260510065756 75 133 2.0 6.0 0.00 0.00 0.00 88 1005.2
20260510065656 75 133 2.0 6.0 0.00 0.00 0.00 88 1005.3
20260510065556 75 134 1.0 6.0 0.00 0.00 0.00 88 1005.2
20260510065458 75 131 1.0 6.0 0.00 0.00 0.00 88 1005.3
20260510065355 75 131 1.0 6.0 0.00 0.00 0.00 88 1005.4
20260510065256 75 131 2.0 6.0 0.00 0.00 0.00 88 1005.3
20260510065155 75 107 1.0 6.0 0.00 0.00 0.00 88 1005.4
20260510065057 75 106 3.0 6.0 0.00 0.00 0.00 88 1005.4
20260510064956 75 106 3.0 6.0 0.00 0.00 0.00 88 1005.4
20260510064855 75 104 2.0 5.0 0.00 0.00 0.00 88 1005.4
20260510064756 75 110 2.0 5.0 0.00 0.00 0.00 88 1005.3
20260510064656 75 107 3.0 5.0 0.00 0.00 0.00 88 1005.4
20260510064555 75 104 3.0 5.0 0.00 0.00 0.00 88 1005.3
20260510064455 75 102 2.0 4.0 0.00 0.00 0.00 88 1005.4
20260510064355 75 111 2.0 5.0 0.00 0.00 0.00 88 1005.3
20260510064256 75 111 2.0 5.0 0.00 0.00 0.00 88 1005.3
20260510064155 75 107 1.0 5.0 0.00 0.00 0.00 88 1005.3
20260510064055 75 124 1.0 5.0 0.00 0.00 0.00 88 1005.3
20260510063955 75 142 1.0 5.0 0.00 0.00 0.00 88 1005.3
20260510063855 75 164 1.0 5.0 0.00 0.00 0.00 88 1005.3
20260510063756 75 164 1.0 5.0 0.00 0.00 0.00 88 1005.3
20260510063656 75 165 1.0 5.0 0.00 0.00 0.00 88 1005.3
20260510063555 75 107 3.0 5.0 0.00 0.00 0.00 88 1005.3
20260510063455 75 107 3.0 5.0 0.00 0.00 0.00 88 1005.2
20260510063354 75 109 2.0 5.0 0.00 0.00 0.00 88 1005.3
20260510063256 75 103 2.0 5.0 0.00 0.00 0.00 88 1005.2
20260510063155 75 127 2.0 4.0 0.00 0.00 0.00 88 1005.2
20260510063055 75 121 2.0 4.0 0.00 0.00 0.00 88 1005.3
20260510062955 75 134 2.0 4.0 0.00 0.00 0.00 88 1005.3
20260510062855 75 124 2.0 5.0 0.00 0.00 0.00 88 1005.3
20260510062754 75 124 2.0 5.0 0.00 0.00 0.00 88 1005.3
20260510062654 75 110 2.0 5.0 0.00 0.00 0.00 88 1005.3
20260510062555 75 124 2.0 5.0 0.00 0.00 0.00 88 1005.3
20260510062456 75 173 1.0 5.0 0.00 0.00 0.00 88 1005.3
20260510062355 75 152 1.0 5.0 0.00 0.00 0.00 88 1005.2
20260510062255 75 121 1.0 5.0 0.00 0.00 0.00 88 1005.2
20260510062155 75 116 2.0 5.0 0.00 0.00 0.00 88 1005.2
20260510062054 75 152 3.0 5.0 0.00 0.00 0.00 88 1005.3
20260510061955 75 140 3.0 5.0 0.00 0.00 0.00 88 1005.2
20260510061854 75 142 2.0 5.0 0.00 0.00 0.00 88 1005.3
20260510061756 75 118 2.0 5.0 0.00 0.00 0.00 88 1005.3
20260510061654 75 124 2.0 5.0 0.00 0.00 0.00 88 1005.3
20260510061555 75 118 3.0 5.0 0.00 0.00 0.00 88 1005.2
20260510061457 75 116 3.0 6.0 0.00 0.00 0.00 88 1005.3
20260510061354 75 121 3.0 6.0 0.00 0.00 0.00 88 1005.2
20260510061255 75 117 2.0 6.0 0.00 0.00 0.00 88 1005.3
20260510061153 75 116 2.0 6.0 0.00 0.00 0.00 88 1005.3
20260510061054 75 118 3.0 6.0 0.00 0.00 0.00 88 1005.4
20260510060954 75 124 2.0 6.0 0.00 0.00 0.00 87 1005.3
20260510060854 75 148 2.0 6.0 0.00 0.00 0.00 87 1005.2
20260510060754 75 149 2.0 6.0 0.00 0.00 0.00 87 1005.2
20260510060653 75 142 2.0 6.0 0.00 0.00 0.00 87 1005.2
20260510060555 75 134 2.0 6.0 0.00 0.00 0.00 87 1005.3
20260510060454 75 145 2.0 6.0 0.00 0.00 0.00 87 1005.3
20260510060355 75 137 2.0 6.0 0.00 0.00 0.00 87 1005.3
20260510060255 75 102 2.0 6.0 0.00 0.00 0.00 87 1005.4
20260510060154 75 162 2.0 5.0 0.00 0.00 0.00 87 1005.4
20260510060054 75 166 2.0 5.0 0.00 0.00 0.00 87 1005.3
20260510055954 75 130 2.0 5.0 0.00 0.00 0.00 87 1005.4
20260510055856 75 134 1.0 5.0 0.00 0.00 0.00 87 1005.4
20260510055754 75 137 1.0 5.0 0.00 0.00 0.00 87 1005.4
20260510055655 75 118 1.0 5.0 0.00 0.00 0.00 87 1005.4
20260510055555 75 111 1.0 5.0 0.00 0.00 0.00 87 1005.5
20260510055454 75 113 0.0 6.0 0.00 0.00 0.00 86 1005.5
20260510055353 75 104 1.0 6.0 0.00 0.00 0.00 86 1005.5
20260510055254 75 104 2.0 6.0 0.00 0.00 0.00 86 1005.5
20260510055155 75 111 1.0 6.0 0.00 0.00 0.00 86 1005.5
20260510055053 75 111 1.0 6.0 0.00 0.00 0.00 86 1005.5
20260510054954 75 113 2.0 6.0 0.00 0.00 0.00 86 1005.6
20260510054855 75 111 3.0 6.0 0.00 0.00 0.00 86 1005.6
20260510054754 75 109 3.0 6.0 0.00 0.00 0.00 86 1005.6
20260510054653 75 109 4.0 6.0 0.00 0.00 0.00 86 1005.7
20260510054553 75 110 4.0 6.0 0.00 0.00 0.00 86 1005.6
20260510054454 75 103 4.0 5.0 0.00 0.00 0.00 86 1005.6
20260510054353 75 104 3.0 5.0 0.00 0.00 0.00 86 1005.6
20260510054255 75 117 1.0 5.0 0.00 0.00 0.00 86 1005.6
20260510054155 75 141 1.0 5.0 0.00 0.00 0.00 86 1005.5
20260510054054 75 142 1.0 5.0 0.00 0.00 0.00 86 1005.4
20260510053955 75 144 1.0 6.0 0.00 0.00 0.00 86 1005.4
20260510053853 75 128 1.0 6.0 0.00 0.00 0.00 86 1005.5
20260510053753 75 128 0.0 6.0 0.00 0.00 0.00 86 1005.5
20260510053654 75 127 2.0 6.0 0.00 0.00 0.00 86 1005.5
20260510053553 76 121 2.0 6.0 0.00 0.00 0.00 86 1005.5
20260510053453 76 124 2.0 6.0 0.00 0.00 0.00 85 1005.5
20260510053353 76 133 2.0 6.0 0.00 0.00 0.00 85 1005.5
20260510053254 76 118 3.0 6.0 0.00 0.00 0.00 85 1005.7
20260510053154 76 123 4.0 6.0 0.00 0.00 0.00 85 1005.5
20260510053054 76 107 3.0 6.0 0.00 0.00 0.00 85 1005.6
20260510052954 76 133 2.0 6.0 0.00 0.00 0.00 85 1005.5
20260510052853 76 137 1.0 6.0 0.00 0.00 0.00 85 1005.5
20260510052755 76 138 1.0 6.0 0.00 0.00 0.00 85 1005.5
20260510052653 76 130 1.0 6.0 0.00 0.00 0.00 85 1005.6
20260510052553 76 130 2.0 6.0 0.00 0.00 0.00 85 1005.6
20260510052454 76 147 2.0 7.0 0.00 0.00 0.00 85 1005.6
20260510052353 76 130 2.0 7.0 0.00 0.00 0.00 85 1005.6
20260510052252 76 117 2.0 7.0 0.00 0.00 0.00 85 1005.7
20260510052155 76 110 3.0 7.0 0.00 0.00 0.00 85 1005.6
20260510052053 76 110 4.0 7.0 0.00 0.00 0.00 84 1005.7
20260510051954 76 109 3.0 7.0 0.00 0.00 0.00 84 1005.7
20260510051852 76 113 4.0 7.0 0.00 0.00 0.00 84 1005.8
20260510051754 76 111 4.0 7.0 0.00 0.00 0.00 84 1005.7
20260510051653 76 113 4.0 7.0 0.00 0.00 0.00 84 1005.7
20260510051554 76 123 4.0 7.0 0.00 0.00 0.00 84 1005.7
20260510051453 76 117 4.0 7.0 0.00 0.00 0.00 84 1005.7
20260510051354 76 120 4.0 7.0 0.00 0.00 0.00 84 1005.7
20260510051254 76 109 5.0 7.0 0.00 0.00 0.00 84 1005.7
20260510051155 76 97 4.0 7.0 0.00 0.00 0.00 84 1005.6
20260510051055 76 111 4.0 10.0 0.00 0.00 0.00 84 1005.6
20260510050953 76 103 4.0 10.0 0.00 0.00 0.00 84 1005.6
20260510050854 76 107 3.0 10.0 0.00 0.00 0.00 84 1005.6
20260510050753 76 111 3.0 10.0 0.00 0.00 0.00 84 1005.6
20260510050652 76 111 4.0 10.0 0.00 0.00 0.00 84 1005.6
20260510050554 76 114 4.0 10.0 0.00 0.00 0.00 84 1005.7
20260510050454 76 104 4.0 10.0 0.00 0.00 0.00 84 1005.7
20260510050353 76 110 4.0 10.0 0.00 0.00 0.00 84 1005.6
20260510050252 76 110 5.0 10.0 0.00 0.00 0.00 84 1005.7
20260510050152 76 117 6.0 10.0 0.00 0.00 0.00 83 1005.7
20260510050052 76 148 5.0 9.0 0.00 0.00 0.00 83 1005.6
20260510045953 76 138 3.0 9.0 0.00 0.00 0.00 83 1005.6
20260510045853 76 135 3.0 9.0 0.00 0.00 0.00 83 1005.5
20260510045753 76 127 4.0 9.0 0.00 0.00 0.00 83 1005.6
20260510045652 76 130 4.0 9.0 0.00 0.00 0.00 83 1005.5
20260510045554 76 131 4.0 9.0 0.00 0.00 0.00 83 1005.5
20260510045454 76 109 5.0 9.0 0.00 0.00 0.00 83 1005.5
20260510045354 76 145 5.0 9.0 0.00 0.00 0.00 83 1005.4
20260510045253 76 138 3.0 7.0 0.00 0.00 0.00 83 1005.4
20260510045153 76 116 2.0 7.0 0.00 0.00 0.00 83 1005.4
20260510045054 77 175 1.0 7.0 0.00 0.00 0.00 82 1005.4
20260510044953 77 188 2.0 9.0 0.00 0.00 0.00 82 1005.5
20260510044852 77 138 4.0 9.0 0.00 0.00 0.00 82 1005.5
20260510044752 77 130 4.0 9.0 0.00 0.00 0.00 82 1005.5
20260510044652 77 120 5.0 9.0 0.00 0.00 0.00 81 1005.6
20260510044553 77 120 5.0 9.0 0.00 0.00 0.00 81 1005.5
20260510044454 77 120 5.0 9.0 0.00 0.00 0.00 81 1005.5
20260510044352 77 113 5.0 9.0 0.00 0.00 0.00 81 1005.6
20260510044253 77 106 5.0 9.0 0.00 0.00 0.00 81 1005.6
20260510044152 77 113 6.0 9.0 0.00 0.00 0.00 81 1005.5
20260510044053 77 106 6.0 9.0 0.00 0.00 0.00 81 1005.6
20260510043953 77 106 5.0 9.0 0.00 0.00 0.00 81 1005.6
20260510043853 77 109 5.0 9.0 0.00 0.00 0.00 81 1005.6
20260510043752 77 116 5.0 9.0 0.00 0.00 0.00 80 1005.6
20260510043652 77 121 6.0 9.0 0.00 0.00 0.00 80 1005.6
20260510043553 77 113 6.0 9.0 0.00 0.00 0.00 80 1005.7
20260510043452 77 111 5.0 9.0 0.00 0.00 0.00 80 1005.7
20260510043353 77 106 6.0 9.0 0.00 0.00 0.00 79 1005.6
20260510043254 77 111 6.0 9.0 0.00 0.00 0.00 79 1005.7
20260510043151 77 103 6.0 9.0 0.00 0.00 0.00 79 1005.6
20260510043052 77 113 4.0 7.0 0.00 0.00 0.00 79 1005.6
20260510042952 77 109 4.0 7.0 0.00 0.00 0.00 79 1005.7
20260510042852 77 113 5.0 7.0 0.00 0.00 0.00 79 1005.6
20260510042753 77 103 6.0 7.0 0.00 0.00 0.00 79 1005.7
20260510042654 77 120 5.0 7.0 0.00 0.00 0.00 79 1005.7
20260510042552 77 110 5.0 7.0 0.00 0.00 0.00 78 1005.7
20260510042452 77 110 5.0 7.0 0.00 0.00 0.00 78 1005.7
20260510042352 77 106 4.0 7.0 0.00 0.00 0.00 78 1005.7
20260510042252 77 118 4.0 7.0 0.00 0.00 0.00 78 1005.7
20260510042153 77 110 5.0 7.0 0.00 0.00 0.00 78 1005.7
20260510042051 77 114 4.0 7.0 0.00 0.00 0.00 78 1005.6
20260510041953 77 109 4.0 7.0 0.00 0.00 0.00 77 1005.7
20260510041853 77 109 4.0 7.0 0.00 0.00 0.00 77 1005.7
20260510041752 77 113 3.0 5.0 0.00 0.00 0.00 77 1005.7
20260510041653 78 110 4.0 6.0 0.00 0.00 0.00 77 1005.7
20260510041552 77 103 4.0 6.0 0.00 0.00 0.00 77 1005.8
20260510041452 78 106 3.0 6.0 0.00 0.00 0.00 77 1005.8
20260510041352 78 103 4.0 6.0 0.00 0.00 0.00 76 1005.8
20260510041252 78 100 4.0 6.0 0.00 0.00 0.00 76 1005.8
20260510041151 78 82 4.0 6.0 0.00 0.00 0.00 76 1005.8
20260510041052 78 116 4.0 7.0 0.00 0.00 0.00 76 1005.9
20260510040951 78 89 4.0 7.0 0.00 0.00 0.00 76 1005.8
20260510040851 78 103 4.0 9.0 0.00 0.00 0.00 76 1005.7
20260510040752 78 103 5.0 9.0 0.00 0.00 0.00 76 1005.7
20260510040651 78 104 5.0 9.0 0.00 0.00 0.00 76 1005.7
20260510040552 78 113 4.0 9.0 0.00 0.00 0.00 76 1005.7
20260510040451 78 116 5.0 9.0 0.00 0.00 0.00 76 1005.6
20260510040353 78 111 5.0 9.0 0.00 0.00 0.00 76 1005.7
20260510040252 78 114 5.0 9.0 0.00 0.00 0.00 76 1005.7
20260510040151 78 109 5.0 9.0 0.00 0.00 0.00 75 1005.7
20260510040053 78 113 6.0 9.0 0.00 0.00 0.00 75 1005.7
20260510035951 78 104 6.0 9.0 0.00 0.00 0.00 75 1005.6
20260510035851 78 120 5.0 10.0 0.00 0.00 0.00 75 1005.6
20260510035752 78 118 4.0 10.0 0.00 0.00 0.00 75 1005.6
20260510035651 78 113 5.0 10.0 0.00 0.00 0.00 75 1005.7
20260510035552 78 131 5.0 11.0 0.00 0.00 0.00 75 1005.7
20260510035452 78 117 5.0 11.0 0.00 0.00 0.00 75 1005.6
20260510035353 78 109 5.0 11.0 0.00 0.00 0.00 75 1005.7
20260510035250 78 125 6.0 11.0 0.00 0.00 0.00 75 1005.7
20260510035153 78 103 7.0 11.0 0.00 0.00 0.00 75 1005.7
20260510035052 78 125 6.0 11.0 0.00 0.00 0.00 75 1005.7
20260510034951 78 114 6.0 11.0 0.00 0.00 0.00 75 1005.7
20260510034851 78 106 6.0 11.0 0.00 0.00 0.00 75 1005.7
20260510034751 78 121 7.0 11.0 0.00 0.00 0.00 75 1005.7
20260510034654 78 104 6.0 11.0 0.00 0.00 0.00 75 1005.7
20260510034550 78 102 6.0 11.0 0.00 0.00 0.00 75 1005.6
20260510034451 78 113 7.0 11.0 0.00 0.00 0.00 75 1005.6
20260510034352 78 109 7.0 11.0 0.00 0.00 0.00 75 1005.6
20260510034252 78 114 8.0 11.0 0.00 0.00 0.00 75 1005.7
20260510034153 78 103 8.0 11.0 0.00 0.00 0.00 75 1005.7
20260510034053 78 104 7.0 11.0 0.00 0.00 0.00 75 1005.7
20260510033953 78 94 7.0 11.0 0.00 0.00 0.00 74 1005.7
20260510033852 77 113 6.0 11.0 0.00 0.00 0.00 74 1005.7
20260510033751 77 96 7.0 11.0 0.00 0.00 0.00 74 1005.7
20260510033652 78 121 7.0 11.0 0.00 0.00 0.00 74 1005.6
20260510033551 78 107 6.0 11.0 0.00 0.00 0.00 74 1005.5
20260510033452 77 110 5.0 10.0 0.00 0.00 0.00 74 1005.6
20260510033350 77 109 5.0 10.0 0.00 0.00 0.00 74 1005.6
20260510033251 77 114 6.0 10.0 0.00 0.00 0.00 74 1005.6
20260510033150 77 103 6.0 10.0 0.00 0.00 0.00 74 1005.7
20260510033052 77 114 6.0 10.0 0.00 0.00 0.00 74 1005.8
20260510032950 77 92 6.0 10.0 0.00 0.00 0.00 74 1005.8
20260510032851 77 114 6.0 10.0 0.00 0.00 0.00 74 1005.8
20260510032750 77 93 6.0 10.0 0.00 0.00 0.00 74 1006.0
20260510032652 77 82 7.0 10.0 0.00 0.00 0.00 74 1005.9
20260510032551 77 114 6.0 10.0 0.00 0.00 0.00 74 1005.9
20260510032451 77 90 6.0 9.0 0.00 0.00 0.00 74 1006.0
20260510032352 77 107 5.0 9.0 0.00 0.00 0.00 74 1005.9
20260510032252 77 90 5.0 10.0 0.00 0.00 0.00 74 1005.9
20260510032150 77 120 6.0 11.0 0.00 0.00 0.00 74 1005.9
20260510032050 77 100 6.0 11.0 0.00 0.00 0.00 74 1005.8
20260510031952 77 96 6.0 11.0 0.00 0.00 0.00 75 1005.8
20260510031850 76 106 6.0 11.0 0.00 0.00 0.00 75 1005.8
20260510031751 76 93 6.0 11.0 0.00 0.00 0.00 75 1005.9
20260510031652 76 99 6.0 11.0 0.00 0.00 0.00 75 1005.8
20260510031551 76 85 6.0 11.0 0.00 0.00 0.00 75 1005.8
20260510031451 76 94 6.0 11.0 0.00 0.00 0.00 75 1005.8
20260510031352 76 103 7.0 11.0 0.00 0.00 0.00 75 1005.8
20260510031252 76 99 7.0 11.0 0.00 0.00 0.00 75 1005.8
20260510031149 76 111 7.0 11.0 0.00 0.00 0.00 75 1005.8
20260510031050 76 102 6.0 11.0 0.00 0.00 0.00 75 1005.8
20260510030950 76 78 6.0 9.0 0.00 0.00 0.00 75 1005.8
20260510030852 76 90 5.0 7.0 0.00 0.00 0.00 75 1005.7
20260510030750 76 97 4.0 6.0 0.00 0.00 0.00 75 1005.7
20260510030650 75 92 4.0 6.0 0.00 0.00 0.00 75 1005.7
20260510030550 75 86 4.0 6.0 0.00 0.00 0.00 75 1005.7
20260510030451 75 93 4.0 6.0 0.00 0.00 0.00 75 1005.7
20260510030350 75 96 3.0 5.0 0.00 0.00 0.00 76 1005.6
20260510030250 75 93 3.0 5.0 0.00 0.00 0.00 76 1005.6
20260510030153 75 90 3.0 5.0 0.00 0.00 0.00 76 1005.5
20260510030052 75 83 3.0 5.0 0.00 0.00 0.00 76 1005.5
20260510025950 75 78 2.0 5.0 0.00 0.00 0.00 76 1005.5
20260510025852 75 97 1.0 5.0 0.00 0.00 0.00 76 1005.4
20260510025749 75 97 1.0 5.0 0.00 0.00 0.00 76 1005.4
20260510025651 75 97 1.0 5.0 0.00 0.00 0.00 76 1005.5
20260510025555 76 97 1.0 5.0 0.00 0.00 0.00 76 1005.4
20260510025449 76 97 2.0 5.0 0.00 0.00 0.00 76 1005.4
20260510025351 76 97 1.0 5.0 0.00 0.00 0.00 76 1005.3
20260510025250 76 97 2.0 5.0 0.00 0.00 0.00 75 1005.2
20260510025150 76 97 2.0 5.0 0.00 0.00 0.00 75 1005.2
20260510025050 76 97 2.0 5.0 0.00 0.00 0.00 75 1005.1
20260510024951 76 99 2.0 4.0 0.00 0.00 0.00 75 1005.2
20260510024850 76 99 2.0 4.0 0.00 0.00 0.00 75 1005.2
20260510024751 76 94 1.0 3.0 0.00 0.00 0.00 75 1005.1
20260510024649 76 94 2.0 3.0 0.00 0.00 0.00 75 1005.1
20260510024550 76 96 2.0 3.0 0.00 0.00 0.00 75 1005.1
20260510024451 76 97 2.0 3.0 0.00 0.00 0.00 75 1005.1
20260510024349 76 97 1.0 4.0 0.00 0.00 0.00 75 1005.1
20260510024251 76 97 1.0 5.0 0.00 0.00 0.00 75 1005.0
20260510024151 76 97 1.0 6.0 0.00 0.00 0.00 75 1005.0
20260510024050 76 97 0.0 6.0 0.00 0.00 0.00 75 1005.0
20260510023950 76 97 0.0 6.0 0.00 0.00 0.00 75 1004.8
20260510023850 76 97 1.0 6.0 0.00 0.00 0.00 75 1004.9
20260510023749 76 97 2.0 9.0 0.00 0.00 0.00 75 1004.8
20260510023650 76 97 2.0 9.0 0.00 0.00 0.00 74 1004.9
20260510023551 76 97 2.0 9.0 0.00 0.00 0.00 74 1004.8
20260510023449 76 97 3.0 9.0 0.00 0.00 0.00 74 1004.7
20260510023350 76 96 4.0 9.0 0.00 0.00 0.00 74 1004.7
20260510023250 76 92 4.0 9.0 0.00 0.00 0.00 74 1004.6
20260510023152 76 93 4.0 9.0 0.00 0.00 0.00 74 1004.6
20260510023050 77 106 5.0 11.0 0.00 0.00 0.00 74 1004.5
20260510022949 77 103 6.0 11.0 0.00 0.00 0.00 74 1004.5
20260510022851 77 102 5.0 11.0 0.00 0.00 0.00 73 1004.5
20260510022752 77 111 5.0 11.0 0.00 0.00 0.00 73 1004.5
20260510022649 77 106 5.0 11.0 0.00 0.00 0.00 73 1004.5
20260510022550 77 127 4.0 11.0 0.00 0.00 0.00 73 1004.4
20260510022449 76 140 4.0 11.0 0.00 0.00 0.00 73 1004.4
20260510022349 76 127 5.0 11.0 0.00 0.00 0.00 73 1004.4
20260510022251 76 87 6.0 11.0 0.00 0.00 0.00 73 1004.4
20260510022149 76 99 6.0 11.0 0.00 0.00 0.00 73 1004.5
20260510022050 76 104 5.0 9.0 0.00 0.00 0.00 73 1004.3
20260510021949 76 97 4.0 9.0 0.00 0.00 0.00 73 1004.3
20260510021849 76 93 4.0 9.0 0.00 0.00 0.00 73 1004.2
20260510021749 76 90 6.0 9.0 0.00 0.00 0.00 74 1004.1
20260510021650 76 97 7.0 9.0 0.00 0.00 0.00 74 1004.2
20260510021551 76 90 3.0 9.0 0.00 0.00 0.00 74 1004.1
20260510021450 76 123 0.0 4.0 0.00 0.00 0.00 74 1004.0
20260510021349 76 127 0.0 0.0 0.00 0.00 0.00 74 1003.9
20260510021249 76 127 0.0 0.0 0.00 0.00 0.00 74 1003.8
20260510021149 76 127 0.0 0.0 0.00 0.00 0.00 74 1003.8
20260510021050 76 127 0.0 0.0 0.00 0.00 0.00 74 1003.8
20260510020950 76 127 0.0 0.0 0.00 0.00 0.00 74 1003.8
20260510020850 76 127 0.0 0.0 0.00 0.00 0.00 74 1003.9
20260510020750 76 127 0.0 0.0 0.00 0.00 0.00 73 1003.9
20260510020649 76 127 0.0 0.0 0.00 0.00 0.00 73 1003.8
20260510020549 76 127 0.0 0.0 0.00 0.00 0.00 73 1003.8
20260510020450 76 127 0.0 0.0 0.00 0.00 0.00 72 1003.8
20260510020350 76 127 0.0 0.0 0.00 0.00 0.00 72 1003.7
20260510020251 76 127 0.0 0.0 0.00 0.00 0.00 72 1003.7
20260510020148 76 127 0.0 0.0 0.00 0.00 0.00 72 1003.6
20260510020051 76 127 0.0 0.0 0.00 0.00 0.00 72 1003.5
20260510015950 76 127 0.0 0.0 0.00 0.00 0.00 72 1003.5
20260510015848 76 127 0.0 0.0 0.00 0.00 0.00 72 1003.4
20260510015748 76 127 0.0 0.0 0.00 0.00 0.00 71 1003.4
20260510015649 76 127 0.0 0.0 0.00 0.00 0.00 71 1003.4
20260510015548 76 127 0.0 0.0 0.00 0.00 0.00 71 1003.4
20260510015448 76 127 0.0 0.0 0.00 0.00 0.00 71 1003.4
20260510015350 76 127 0.0 0.0 0.00 0.00 0.00 71 1003.4
20260510015249 76 127 0.0 0.0 0.00 0.00 0.00 70 1003.3
20260510015151 76 127 0.0 0.0 0.00 0.00 0.00 70 1003.3
20260510015048 76 127 0.0 0.0 0.00 0.00 0.00 70 1003.3
20260510014948 76 127 0.0 0.0 0.00 0.00 0.00 70 1003.3
20260510014850 77 127 0.0 0.0 0.00 0.00 0.00 70 1003.2
20260510014748 77 127 0.0 0.0 0.00 0.00 0.00 70 1003.2
20260510014649 77 127 0.0 0.0 0.00 0.00 0.00 70 1003.1
20260510014549 77 127 0.0 0.0 0.00 0.00 0.00 69 1003.2
20260510014448 77 127 0.0 0.0 0.00 0.00 0.00 69 1003.1
20260510014350 77 127 0.0 0.0 0.00 0.00 0.00 69 1003.1
20260510014248 77 127 0.0 0.0 0.00 0.00 0.00 69 1003.0
20260510014149 77 127 0.0 0.0 0.00 0.00 0.00 69 1003.0
20260510014050 77 127 0.0 0.0 0.00 0.00 0.00 69 1003.1
20260510013951 77 127 0.0 0.0 0.00 0.00 0.00 69 1003.1
20260510013849 77 127 0.0 0.0 0.00 0.00 0.00 69 1003.1
20260510013749 77 127 0.0 0.0 0.00 0.00 0.00 69 1003.1
20260510013648 77 127 0.0 0.0 0.00 0.00 0.00 69 1003.1
20260510013548 77 127 0.0 0.0 0.00 0.00 0.00 69 1003.2
20260510013449 77 127 0.0 0.0 0.00 0.00 0.00 69 1003.1
20260510013348 77 127 0.0 0.0 0.00 0.00 0.00 69 1003.2
20260510013248 78 127 0.0 0.0 0.00 0.00 0.00 69 1003.2
20260510013148 78 127 0.0 0.0 0.00 0.00 0.00 68 1003.2
20260510013050 78 127 0.0 0.0 0.00 0.00 0.00 68 1003.2
20260510012949 78 127 0.0 0.0 0.00 0.00 0.00 68 1003.2
20260510012851 78 127 0.0 0.0 0.00 0.00 0.00 68 1003.2
20260510012749 78 127 0.0 1.0 0.00 0.00 0.00 68 1003.1
20260510012649 78 127 0.0 1.0 0.00 0.00 0.00 68 1003.2
20260510012550 78 127 0.0 3.0 0.00 0.00 0.00 68 1003.1
20260510012449 78 127 0.0 3.0 0.00 0.00 0.00 68 1003.1
20260510012348 78 127 0.0 3.0 0.00 0.00 0.00 67 1003.2
20260510012248 78 127 0.0 3.0 0.00 0.00 0.00 67 1003.2
20260510012147 78 127 0.0 3.0 0.00 0.00 0.00 67 1003.3
20260510012048 78 127 0.0 3.0 0.00 0.00 0.00 67 1003.3
20260510011947 78 127 0.0 3.0 0.00 0.00 0.00 67 1003.3
20260510011848 78 127 0.0 3.0 0.00 0.00 0.00 67 1003.3
20260510011747 78 127 1.0 3.0 0.00 0.00 0.00 67 1003.2
20260510011648 78 127 2.0 3.0 0.00 0.00 0.00 67 1003.2
20260510011549 78 127 2.0 5.0 0.00 0.00 0.00 67 1003.1
20260510011448 78 103 2.0 5.0 0.00 0.00 0.00 67 1003.1
20260510011349 78 103 2.0 5.0 0.00 0.00 0.00 67 1003.1
20260510011249 78 103 2.0 5.0 0.00 0.00 0.00 67 1003.2
20260510011148 78 103 2.0 5.0 0.00 0.00 0.00 67 1003.2
20260510011048 78 103 2.0 5.0 0.00 0.00 0.00 67 1003.2
20260510010949 78 103 3.0 5.0 0.00 0.00 0.00 67 1003.1
20260510010847 78 102 3.0 5.0 0.00 0.00 0.00 67 1003.2
20260510010749 78 102 3.0 5.0 0.00 0.00 0.00 67 1003.1
20260510010647 78 102 4.0 5.0 0.00 0.00 0.00 66 1003.1
20260510010547 78 104 3.0 5.0 0.00 0.00 0.00 66 1003.2
20260510010447 78 104 4.0 5.0 0.00 0.00 0.00 66 1003.1
20260510010349 78 106 4.0 5.0 0.00 0.00 0.00 66 1003.2
20260510010249 79 110 3.0 5.0 0.00 0.00 0.00 66 1003.1
20260510010150 79 142 2.0 4.0 0.00 0.00 0.00 66 1003.2
20260510010049 79 147 1.0 4.0 0.00 0.00 0.00 66 1003.2
20260510005947 79 161 0.0 0.0 0.00 0.00 0.00 66 1003.1
20260510005848 79 161 0.0 0.0 0.00 0.00 0.00 66 1003.1
20260510005747 79 162 0.0 0.0 0.00 0.00 0.00 66 1003.1
20260510005647 79 162 0.0 0.0 0.00 0.00 0.00 65 1002.9
20260510005548 79 164 0.0 0.0 0.00 0.00 0.00 65 1003.0
20260510005447 79 165 0.0 0.0 0.00 0.00 0.00 65 1002.9
20260510005347 79 166 0.0 1.0 0.00 0.00 0.00 64 1002.9
20260510005247 79 166 0.0 4.0 0.00 0.00 0.00 63 1002.8
20260510005148 79 166 0.0 4.0 0.00 0.00 0.00 63 1002.7
20260510005046 79 168 0.0 4.0 0.00 0.00 0.00 63 1002.6
20260510004946 79 171 0.0 4.0 0.00 0.00 0.00 63 1002.6
20260510004848 79 171 0.0 4.0 0.00 0.00 0.00 63 1002.6
20260510004747 79 171 0.0 4.0 0.00 0.00 0.00 63 1002.6
20260510004648 79 169 0.0 4.0 0.00 0.00 0.00 63 1002.6
20260510004547 79 171 0.0 4.0 0.00 0.00 0.00 63 1002.6
20260510004447 79 202 1.0 4.0 0.00 0.00 0.00 64 1002.7
20260510004347 79 202 2.0 5.0 0.00 0.00 0.00 64 1002.6
20260510004248 79 151 2.0 5.0 0.00 0.00 0.00 64 1002.7
20260510004147 79 166 3.0 5.0 0.00 0.00 0.00 64 1002.7
20260510004048 79 165 3.0 6.0 0.00 0.00 0.00 64 1002.8
20260510003947 79 161 3.0 6.0 0.00 0.00 0.00 64 1002.8
20260510003847 79 142 2.0 6.0 0.00 0.00 0.00 64 1002.8
20260510003748 79 176 3.0 6.0 0.00 0.00 0.00 64 1002.9
20260510003646 79 145 3.0 6.0 0.00 0.00 0.00 64 1002.9
20260510003547 79 135 3.0 6.0 0.00 0.00 0.00 65 1002.9
20260510003447 79 157 3.0 6.0 0.00 0.00 0.00 65 1002.9
20260510003347 78 166 3.0 6.0 0.00 0.00 0.00 65 1002.9
20260510003248 78 169 2.0 6.0 0.00 0.00 0.00 65 1002.8
20260510003147 78 142 3.0 6.0 0.00 0.00 0.00 65 1002.8
20260510003048 78 171 2.0 5.0 0.00 0.00 0.00 66 1002.8
20260510002947 78 169 1.0 5.0 0.00 0.00 0.00 67 1002.8
20260510002847 78 190 2.0 5.0 0.00 0.00 0.00 67 1002.8
20260510002747 78 158 3.0 5.0 0.00 0.00 0.00 68 1002.9
20260510002647 77 166 3.0 7.0 0.00 0.00 0.00 69 1002.9
20260510002548 77 147 2.0 7.0 0.00 0.00 0.00 69 1003.1
20260510002448 77 175 2.0 7.0 0.00 0.00 0.00 69 1003.0
20260510002349 77 178 2.0 7.0 0.00 0.00 0.00 69 1002.9
20260510002247 77 179 3.0 7.0 0.00 0.00 0.00 69 1003.1
20260510002148 77 172 3.0 7.0 0.00 0.00 0.00 70 1003.0
20260510002046 77 114 3.0 7.0 0.00 0.00 0.00 70 1003.0
20260510001948 76 102 4.0 7.0 0.00 0.00 0.00 70 1002.9
20260510001847 76 111 4.0 9.0 0.00 0.00 0.00 70 1002.9
20260510001746 76 148 4.0 9.0 0.00 0.00 0.00 70 1002.9
20260510001646 76 128 4.0 10.0 0.00 0.00 0.00 70 1002.8
20260510001546 76 161 4.0 11.0 0.00 0.00 0.00 70 1002.8
20260510001448 76 159 4.0 11.0 0.00 0.00 0.00 70 1002.9
20260510001346 76 219 4.0 14.0 0.00 0.00 0.00 70 1002.9
20260510001246 76 111 5.0 14.0 0.00 0.00 0.00 70 1002.9
20260510001148 76 149 5.0 14.0 0.00 0.00 0.00 69 1002.9
20260510001046 76 147 6.0 14.0 0.00 0.00 0.00 69 1002.8
20260510000946 77 202 6.0 14.0 0.00 0.00 0.00 69 1002.8
20260510000847 77 254 6.0 14.0 0.00 0.00 0.00 68 1002.8
20260510000746 77 111 6.0 15.0 0.00 0.00 0.00 68 1002.8
20260510000645 77 134 7.0 15.0 0.00 0.00 0.00 67 1002.9
20260510000547 78 134 8.0 15.0 0.00 0.00 0.00 67 1002.9
20260510000448 78 144 7.0 15.0 0.00 0.00 0.00 67 1003.0
20260510000348 78 147 7.0 15.0 0.00 0.00 0.00 65 1003.0
20260510000248 78 145 8.0 15.0 0.00 0.00 0.00 65 1003.1
20260510000146 79 161 7.0 15.0 0.00 0.00 0.00 64 1002.9
20260510000046 79 176 7.0 15.0 0.00 0.00 0.00 63 1002.9
20260509235948 80 159 8.0 15.0 0.00 0.00 0.00 63 1003.1
20260509235847 80 173 7.0 15.0 0.00 0.00 0.00 63 1003.1
20260509235746 81 158 6.0 16.0 0.00 0.00 0.00 63 1003.1
20260509235645 81 152 5.0 16.0 0.00 0.00 0.00 63 1003.2
20260509235546 81 148 6.0 16.0 0.00 0.00 0.00 63 1003.1
20260509235447 82 155 7.0 16.0 0.00 0.00 0.00 62 1003.0
20260509235346 82 147 8.0 16.0 0.00 0.00 0.00 63 1002.9
20260509235247 83 137 8.0 16.0 0.00 0.00 0.00 62 1002.9
20260509235146 84 131 7.0 16.0 0.00 0.00 0.00 62 1002.9
20260509235046 84 154 10.0 16.0 0.00 0.00 0.00 61 1002.8
20260509234947 85 147 11.0 16.0 0.00 0.00 0.00 62 1002.8
20260509234847 85 100 9.0 16.0 0.00 0.00 0.00 62 1002.8
20260509234747 86 161 8.0 12.0 0.00 0.00 0.00 63 1002.6
20260509234646 86 135 8.0 12.0 0.00 0.00 0.00 64 1002.6
20260509234546 86 189 6.0 12.0 0.00 0.00 0.00 65 1002.6
20260509234446 87 106 5.0 12.0 0.00 0.00 0.00 66 1002.5
20260509234346 87 166 5.0 12.0 0.00 0.00 0.00 66 1002.5
20260509234247 87 127 4.0 12.0 0.00 0.00 0.00 65 1002.4
20260509234146 88 157 3.0 12.0 0.00 0.00 0.00 66 1002.4
20260509234047 88 164 0.0 0.0 0.00 0.00 0.00 66 1002.4
20260509233945 88 193 0.0 0.0 0.00 0.00 0.00 66 1002.4
20260509233848 88 337 0.0 0.0 0.00 0.00 0.00 66 1002.3
20260509233745 88 340 0.0 0.0 0.00 0.00 0.00 66 1002.4
20260509233645 88 340 0.0 0.0 0.00 0.00 0.00 66 1002.4
20260509233546 88 340 0.0 0.0 0.00 0.00 0.00 66 1002.3
20260509233446 88 340 0.0 0.0 0.00 0.00 0.00 66 1002.3
20260509233347 88 340 0.0 0.0 0.00 0.00 0.00 64 1002.3
20260509233247 88 340 0.0 0.0 0.00 0.00 0.00 64 1002.3
20260509233145 88 340 0.0 0.0 0.00 0.00 0.00 65 1002.2
20260509233046 88 340 0.0 0.0 0.00 0.00 0.00 65 1002.2
20260509232945 88 340 0.0 0.0 0.00 0.00 0.00 65 1002.3
20260509232846 88 340 0.0 0.0 0.00 0.00 0.00 65 1002.2
20260509232746 88 340 0.0 0.0 0.00 0.00 0.00 65 1002.2
20260509232648 88 340 0.0 0.0 0.00 0.00 0.00 65 1002.2
20260509232545 88 340 0.0 0.0 0.00 0.00 0.00 66 1002.2
20260509232445 88 340 0.0 0.0 0.00 0.00 0.00 65 1002.2
20260509232346 88 340 0.0 0.0 0.00 0.00 0.00 65 1002.2
20260509232245 88 340 0.0 0.0 0.00 0.00 0.00 65 1002.2
20260509232147 88 340 0.0 0.0 0.00 0.00 0.00 65 1002.2
20260509232044 88 340 0.0 0.0 0.00 0.00 0.00 64 1002.1
20260509231947 88 340 0.0 0.0 0.00 0.00 0.00 64 1002.2
20260509231845 88 340 0.0 0.0 0.00 0.00 0.00 65 1002.1
20260509231747 88 340 0.0 0.0 0.00 0.00 0.00 64 1002.1
20260509231646 88 340 0.0 0.0 0.00 0.00 0.00 64 1002.1
20260509231546 88 340 0.0 0.0 0.00 0.00 0.00 63 1002.1
20260509231437 88 340 0.0 0.0 0.00 0.00 0.00 63 1002.1
20260509231333 88 340 0.0 3.0 0.00 0.00 0.00 65 1002.2
20260509231233 88 340 0.0 3.0 0.00 0.00 0.00 65 1002.1
20260509231131 88 340 0.0 3.0 0.00 0.00 0.00 64 1002.1
20260509231032 88 340 0.0 5.0 0.00 0.00 0.00 64 1002.2
20260509230932 88 340 0.0 5.0 0.00 0.00 0.00 64 1002.2
20260509230831 87 340 0.0 5.0 0.00 0.00 0.00 64 1002.2
20260509230732 88 340 0.0 5.0 0.00 0.00 0.00 64 1002.2
20260509230626 88 340 0.0 5.0 0.00 0.00 0.00 64 1002.2
20260509230524 88 340 1.0 5.0 0.00 0.00 0.00 65 1002.2
20260509230411 88 340 2.0 5.0 0.00 0.00 0.00 66 1002.2
20260509230309 87 337 2.0 5.0 0.00 0.00 0.00 66 1002.2
20260509230206 87 337 3.0 5.0 0.00 0.00 0.00 64 1002.3
20260509230105 87 337 4.0 5.0 0.00 0.00 0.00 64 1002.2
20260509230003 87 337 3.0 5.0 0.00 0.00 0.00 65 1002.1
20260509225902 87 337 2.0 5.0 0.00 0.00 0.00 65 1002.2
20260509225804 87 337 3.0 5.0 0.00 0.00 0.00 66 1002.1
20260509225704 87 337 3.0 5.0 0.00 0.00 0.00 66 1002.1
20260509225603 88 337 4.0 5.0 0.00 0.00 0.00 64 1002.0
20260509225505 88 337 4.0 5.0 0.00 0.00 0.00 64 1002.0
20260509225402 88 337 4.0 5.0 0.00 0.00 0.00 64 1002.0
20260509225306 88 341 3.0 5.0 0.00 0.00 0.00 65 1002.0
20260509225202 88 0 2.0 4.0 0.00 0.00 0.00 65 1001.9
20260509225104 88 0 2.0 4.0 0.00 0.00 0.00 64 1001.9
20260509225004 88 0 1.0 4.0 0.00 0.00 0.00 64 1001.8
20260509224904 88 0 1.0 4.0 0.00 0.00 0.00 63 1001.8
20260509224803 88 0 1.0 4.0 0.00 0.00 0.00 63 1001.7
20260509224702 88 0 2.0 4.0 0.00 0.00 0.00 63 1001.8
20260509224604 88 0 2.0 5.0 0.00 0.00 0.00 65 1001.8
20260509224502 88 0 2.0 5.0 0.00 0.00 0.00 65 1001.8
20260509224402 88 0 3.0 5.0 0.00 0.00 0.00 65 1001.8
20260509224304 88 333 3.0 5.0 0.00 0.00 0.00 64 1001.9
20260509224203 88 312 2.0 5.0 0.00 0.00 0.00 64 1001.9
20260509224101 88 309 3.0 5.0 0.00 0.00 0.00 64 1001.9
20260509224003 88 309 3.0 5.0 0.00 0.00 0.00 64 1001.9
20260509223903 88 309 3.0 5.0 0.00 0.00 0.00 64 1001.9
20260509223803 88 323 3.0 5.0 0.00 0.00 0.00 64 1001.9
20260509223703 88 336 3.0 5.0 0.00 0.00 0.00 64 1002.0
20260509223602 88 340 3.0 5.0 0.00 0.00 0.00 64 1002.0
20260509223504 88 317 3.0 5.0 0.00 0.00 0.00 64 1002.0
20260509223404 88 317 3.0 6.0 0.00 0.00 0.00 64 1002.1
20260509223302 88 317 3.0 6.0 0.00 0.00 0.00 64 1002.2
20260509223202 88 320 2.0 6.0 0.00 0.00 0.00 64 1002.2
20260509223103 88 340 4.0 6.0 0.00 0.00 0.00 65 1002.2
20260509223004 89 340 3.0 6.0 0.00 0.00 0.00 64 1002.1
20260509222903 89 334 3.0 6.0 0.00 0.00 0.00 64 1002.1
20260509222802 89 314 3.0 6.0 0.00 0.00 0.00 64 1002.0
20260509222704 89 295 4.0 6.0 0.00 0.00 0.00 63 1001.9
20260509222602 89 295 3.0 6.0 0.00 0.00 0.00 62 1002.0
20260509222506 89 295 4.0 6.0 0.00 0.00 0.00 62 1002.0
20260509222403 89 296 2.0 6.0 0.00 0.00 0.00 63 1001.9
20260509222306 89 259 0.0 4.0 0.00 0.00 0.00 63 1001.9
20260509222203 89 259 1.0 4.0 0.00 0.00 0.00 63 1001.9
20260509222102 89 259 1.0 5.0 0.00 0.00 0.00 63 1002.0
20260509222005 89 259 2.0 6.0 0.00 0.00 0.00 63 1002.0
20260509221903 89 281 2.0 6.0 0.00 0.00 0.00 64 1001.9
20260509221803 89 281 2.0 6.0 0.00 0.00 0.00 64 1001.8
20260509221704 89 281 1.0 6.0 0.00 0.00 0.00 64 1001.8
20260509221602 89 282 1.0 6.0 0.00 0.00 0.00 64 1001.8
20260509221505 89 282 1.0 6.0 0.00 0.00 0.00 65 1001.8
20260509221404 89 285 2.0 6.0 0.00 0.00 0.00 65 1001.8
20260509221302 89 285 3.0 6.0 0.00 0.00 0.00 65 1001.8
20260509221203 89 288 4.0 6.0 0.00 0.00 0.00 65 1001.8
20260509221102 89 343 4.0 6.0 0.00 0.00 0.00 65 1001.8
20260509221004 89 347 4.0 6.0 0.00 0.00 0.00 65 1001.8
20260509220902 89 333 4.0 5.0 0.00 0.00 0.00 65 1001.7
20260509220803 89 283 4.0 5.0 0.00 0.00 0.00 64 1001.8
20260509220704 90 306 4.0 5.0 0.00 0.00 0.00 65 1001.8
20260509220608 90 317 3.0 5.0 0.00 0.00 0.00 66 1001.8
20260509220504 90 319 2.0 4.0 0.00 0.00 0.00 66 1001.9
20260509220402 90 326 2.0 4.0 0.00 0.00 0.00 66 1001.9
20260509220303 90 326 1.0 4.0 0.00 0.00 0.00 64 1001.8
20260509220204 89 338 0.0 5.0 0.00 0.00 0.00 65 1001.9
20260509220002 89 338 1.0 5.0 0.00 0.00 0.00 64 1001.8
20260509215904 89 338 1.0 5.0 0.00 0.00 0.00 64 1001.8
20260509215802 89 338 2.0 5.0 0.00 0.00 0.00 64 1001.9
20260509215702 89 338 3.0 5.0 0.00 0.00 0.00 65 1001.8
20260509215603 89 340 2.0 6.0 0.00 0.00 0.00 65 1001.8
20260509215504 89 355 2.0 6.0 0.00 0.00 0.00 65 1001.8
20260509215402 89 355 4.0 6.0 0.00 0.00 0.00 65 1001.8
20260509215306 89 355 4.0 6.0 0.00 0.00 0.00 66 1001.9
20260509215202 89 355 3.0 6.0 0.00 0.00 0.00 66 1001.8
20260509215102 89 358 2.0 6.0 0.00 0.00 0.00 66 1001.9
20260509215004 89 281 2.0 6.0 0.00 0.00 0.00 66 1001.8
20260509214904 89 281 2.0 6.0 0.00 0.00 0.00 65 1001.8
20260509214802 89 281 3.0 6.0 0.00 0.00 0.00 65 1001.8
20260509214703 89 282 4.0 6.0 0.00 0.00 0.00 65 1001.8
20260509214603 89 275 2.0 5.0 0.00 0.00 0.00 65 1001.8
20260509214505 89 268 1.0 5.0 0.00 0.00 0.00 65 1001.8
20260509214404 89 268 2.0 6.0 0.00 0.00 0.00 65 1001.8
20260509214302 89 268 2.0 6.0 0.00 0.00 0.00 65 1001.8
20260509214201 89 250 0.0 6.0 0.00 0.00 0.00 66 1001.9
20260509214103 89 248 0.0 6.0 0.00 0.00 0.00 66 1001.8
20260509214002 89 248 1.0 6.0 0.00 0.00 0.00 67 1001.8
20260509213904 89 248 2.0 6.0 0.00 0.00 0.00 68 1001.8
20260509213802 89 248 4.0 6.0 0.00 0.00 0.00 67 1001.8
20260509213703 89 266 4.0 6.0 0.00 0.00 0.00 67 1001.8
20260509213602 89 264 4.0 6.0 0.00 0.00 0.00 66 1001.8
20260509213503 89 264 4.0 6.0 0.00 0.00 0.00 66 1001.8
20260509213403 89 261 1.0 5.0 0.00 0.00 0.00 68 1001.8
20260509213302 89 286 0.0 2.0 0.00 0.00 0.00 68 1001.8
20260509213202 89 286 0.0 2.0 0.00 0.00 0.00 66 1001.9
20260509213104 89 285 0.0 2.0 0.00 0.00 0.00 66 1001.9
20260509213002 89 283 0.0 2.0 0.00 0.00 0.00 66 1001.9
20260509212902 89 283 0.0 2.0 0.00 0.00 0.00 66 1001.8
20260509212804 89 283 0.0 2.0 0.00 0.00 0.00 66 1001.9
20260509212702 89 283 0.0 2.0 0.00 0.00 0.00 66 1001.8
20260509212601 89 283 0.0 2.0 0.00 0.00 0.00 66 1001.9
20260509212503 89 283 1.0 3.0 0.00 0.00 0.00 67 1001.9
20260509212404 89 283 0.0 5.0 0.00 0.00 0.00 67 1001.9
20260509212306 89 283 0.0 5.0 0.00 0.00 0.00 67 1002.0
20260509212204 89 283 0.0 5.0 0.00 0.00 0.00 66 1002.0
20260509212104 88 283 1.0 5.0 0.00 0.00 0.00 68 1002.0
20260509212002 88 283 1.0 5.0 0.00 0.00 0.00 67 1001.9
20260509211903 88 283 2.0 5.0 0.00 0.00 0.00 67 1002.0
20260509211803 88 288 2.0 5.0 0.00 0.00 0.00 66 1002.0
20260509211702 88 288 2.0 5.0 0.00 0.00 0.00 68 1002.0
20260509211603 88 288 3.0 5.0 0.00 0.00 0.00 68 1002.0
20260509211504 88 288 3.0 5.0 0.00 0.00 0.00 68 1002.0
20260509211402 88 286 2.0 4.0 0.00 0.00 0.00 68 1002.0
20260509211303 88 288 2.0 4.0 0.00 0.00 0.00 69 1002.0
20260509211203 88 288 2.0 4.0 0.00 0.00 0.00 67 1002.0
20260509211103 88 290 2.0 4.0 0.00 0.00 0.00 67 1002.0
20260509211002 88 290 2.0 4.0 0.00 0.00 0.00 67 1002.0
20260509210903 88 290 3.0 4.0 0.00 0.00 0.00 67 1002.0
20260509210804 88 290 3.0 4.0 0.00 0.00 0.00 67 1002.0
20260509210703 88 319 3.0 4.0 0.00 0.00 0.00 67 1002.1
20260509210603 88 0 1.0 4.0 0.00 0.00 0.00 68 1002.1
20260509210504 88 0 1.0 5.0 0.00 0.00 0.00 68 1002.1
20260509210403 88 0 0.0 5.0 0.00 0.00 0.00 67 1002.1
20260509210304 88 0 1.0 5.0 0.00 0.00 0.00 67 1002.2
20260509210202 88 0 0.0 5.0 0.00 0.00 0.00 67 1002.2
20260509210002 88 0 1.0 6.0 0.00 0.00 0.00 68 1002.1
20260509205902 88 0 2.0 6.0 0.00 0.00 0.00 67 1002.2
20260509205804 87 0 2.0 6.0 0.00 0.00 0.00 68 1002.2
20260509205702 87 350 2.0 6.0 0.00 0.00 0.00 68 1002.2
20260509205602 87 350 3.0 6.0 0.00 0.00 0.00 68 1002.2
20260509205505 87 300 2.0 6.0 0.00 0.00 0.00 68 1002.2
20260509205403 87 300 2.0 6.0 0.00 0.00 0.00 68 1002.2
20260509205306 87 300 2.0 6.0 0.00 0.00 0.00 69 1002.3
20260509205202 87 302 3.0 6.0 0.00 0.00 0.00 68 1002.3
20260509205103 87 300 4.0 6.0 0.00 0.00 0.00 70 1002.3
20260509205004 87 303 4.0 6.0 0.00 0.00 0.00 70 1002.4
20260509204903 87 306 4.0 6.0 0.00 0.00 0.00 69 1002.4
20260509204803 88 326 4.0 6.0 0.00 0.00 0.00 70 1002.4
20260509204702 88 327 4.0 6.0 0.00 0.00 0.00 70 1002.5
20260509204603 87 333 3.0 6.0 0.00 0.00 0.00 70 1002.5
20260509204505 87 289 2.0 6.0 0.00 0.00 0.00 69 1002.5
20260509204402 87 289 2.0 6.0 0.00 0.00 0.00 69 1002.5
20260509204304 87 292 3.0 6.0 0.00 0.00 0.00 68 1002.5
20260509204204 87 313 4.0 6.0 0.00 0.00 0.00 68 1002.5
20260509204103 87 314 5.0 6.0 0.00 0.00 0.00 69 1002.5
20260509204002 87 354 4.0 6.0 0.00 0.00 0.00 70 1002.5
20260509203903 87 340 4.0 6.0 0.00 0.00 0.00 69 1002.6
20260509203804 87 331 4.0 6.0 0.00 0.00 0.00 69 1002.5
20260509203703 87 28 2.0 5.0 0.00 0.00 0.00 69 1002.6
20260509203604 87 32 2.0 4.0 0.00 0.00 0.00 69 1002.7
20260509203503 87 25 2.0 4.0 0.00 0.00 0.00 68 1002.6
20260509203403 87 25 2.0 4.0 0.00 0.00 0.00 70 1002.6
20260509203303 87 23 3.0 4.0 0.00 0.00 0.00 68 1002.6
20260509203202 87 23 3.0 5.0 0.00 0.00 0.00 69 1002.6
20260509203102 87 23 2.0 6.0 0.00 0.00 0.00 68 1002.7
20260509203002 87 3 0.0 6.0 0.00 0.00 0.00 68 1002.7
20260509202902 87 350 0.0 6.0 0.00 0.00 0.00 68 1002.7
20260509202803 87 350 0.0 6.0 0.00 0.00 0.00 68 1002.6
20260509202703 87 350 0.0 6.0 0.00 0.00 0.00 69 1002.7
20260509202602 87 348 1.0 6.0 0.00 0.00 0.00 69 1002.7
20260509202503 87 348 2.0 6.0 0.00 0.00 0.00 70 1002.8
20260509202404 87 351 3.0 6.0 0.00 0.00 0.00 70 1002.7
20260509202306 87 341 4.0 6.0 0.00 0.00 0.00 71 1002.7
20260509202204 87 344 2.0 7.0 0.00 0.00 0.00 71 1002.7
20260509202103 86 357 2.0 9.0 0.00 0.00 0.00 72 1002.8
20260509202006 86 353 3.0 9.0 0.00 0.00 0.00 72 1002.7
20260509201902 86 337 3.0 9.0 0.00 0.00 0.00 72 1002.8
20260509201802 86 296 3.0 9.0 0.00 0.00 0.00 70 1002.7
20260509201703 86 327 4.0 9.0 0.00 0.00 0.00 70 1002.8
20260509201604 87 327 5.0 9.0 0.00 0.00 0.00 71 1002.7
20260509201503 87 336 4.0 9.0 0.00 0.00 0.00 70 1002.7
20260509201402 87 0 4.0 9.0 0.00 0.00 0.00 70 1002.8
20260509201303 87 0 5.0 9.0 0.00 0.00 0.00 70 1002.8
20260509201203 87 351 4.0 9.0 0.00 0.00 0.00 71 1002.8
20260509201102 87 6 3.0 9.0 0.00 0.00 0.00 70 1002.8
20260509201003 87 7 2.0 9.0 0.00 0.00 0.00 72 1002.9
20260509200904 87 4 3.0 9.0 0.00 0.00 0.00 72 1002.9
20260509200803 87 0 5.0 9.0 0.00 0.00 0.00 71 1002.9
20260509200704 87 344 5.0 9.0 0.00 0.00 0.00 71 1002.8
20260509200602 87 319 5.0 9.0 0.00 0.00 0.00 71 1002.8
20260509200501 86 271 4.0 9.0 0.00 0.00 0.00 71 1002.9
20260509200401 86 238 3.0 6.0 0.00 0.00 0.00 71 1002.9
20260509200302 87 289 4.0 6.0 0.00 0.00 0.00 71 1002.8
20260509200203 87 298 3.0 6.0 0.00 0.00 0.00 72 1002.9
20260509200104 86 285 3.0 6.0 0.00 0.00 0.00 72 1003.0
20260509200005 86 302 4.0 6.0 0.00 0.00 0.00 71 1002.9
20260509195902 86 302 4.0 6.0 0.00 0.00 0.00 71 1003.0
20260509195803 86 298 4.0 6.0 0.00 0.00 0.00 71 1003.0
20260509195702 86 292 4.0 6.0 0.00 0.00 0.00 72 1003.1
20260509195604 86 303 3.0 6.0 0.00 0.00 0.00 70 1003.1
20260509195505 86 310 1.0 6.0 0.00 0.00 0.00 71 1003.1
20260509195402 86 276 0.0 6.0 0.00 0.00 0.00 72 1003.0
20260509195306 86 278 4.0 6.0 0.00 0.00 0.00 73 1003.1
20260509195203 86 278 5.0 6.0 0.00 0.00 0.00 73 1003.1
20260509195103 86 281 5.0 6.0 0.00 0.00 0.00 71 1003.1
20260509195004 86 295 5.0 6.0 0.00 0.00 0.00 71 1003.0
20260509194902 86 299 5.0 6.0 0.00 0.00 0.00 71 1003.1
20260509194804 86 298 5.0 6.0 0.00 0.00 0.00 71 1003.0
20260509194704 86 312 5.0 6.0 0.00 0.00 0.00 72 1003.1
20260509194602 86 309 4.0 6.0 0.00 0.00 0.00 72 1003.1
20260509194504 86 321 3.0 6.0 0.00 0.00 0.00 72 1003.0
20260509194403 86 262 3.0 6.0 0.00 0.00 0.00 71 1003.1
20260509194305 86 261 4.0 6.0 0.00 0.00 0.00 71 1003.1
20260509194201 86 258 4.0 7.0 0.00 0.00 0.00 71 1003.1
20260509194103 86 290 4.0 7.0 0.00 0.00 0.00 71 1003.1
20260509194004 86 285 4.0 7.0 0.00 0.00 0.00 71 1003.1
20260509193904 86 279 4.0 7.0 0.00 0.00 0.00 71 1003.1
20260509193803 86 285 3.0 7.0 0.00 0.00 0.00 72 1003.1
20260509193702 86 358 2.0 7.0 0.00 0.00 0.00 71 1003.1
20260509193603 86 0 2.0 7.0 0.00 0.00 0.00 71 1003.0
20260509193502 86 0 4.0 7.0 0.00 0.00 0.00 71 1003.2
20260509193404 86 340 5.0 10.0 0.00 0.00 0.00 71 1003.2
20260509193304 86 317 6.0 10.0 0.00 0.00 0.00 71 1003.2
20260509193201 86 326 4.0 10.0 0.00 0.00 0.00 72 1003.1
20260509193103 86 262 4.0 10.0 0.00 0.00 0.00 72 1003.2
20260509193005 86 303 4.0 10.0 0.00 0.00 0.00 72 1003.2
20260509192902 86 285 4.0 10.0 0.00 0.00 0.00 71 1003.3
20260509192802 86 296 4.0 10.0 0.00 0.00 0.00 71 1003.3
20260509192658 86 283 5.0 10.0 0.00 0.00 0.00 71 1003.3
20260509192553 86 298 7.0 10.0 0.00 0.00 0.00 70 1003.4
20260509192441 86 285 5.0 10.0 0.00 0.00 0.00 72 1003.3
20260509192342 86 296 2.0 7.0 0.00 0.00 0.00 70 1003.3
20260509192239 86 295 3.0 7.0 0.00 0.00 0.00 70 1003.2
20260509192141 86 295 5.0 7.0 0.00 0.00 0.00 70 1003.3
20260509192040 86 293 4.0 7.0 0.00 0.00 0.00 71 1003.3
20260509191940 86 288 2.0 6.0 0.00 0.00 0.00 72 1003.3
20260509191841 86 0 2.0 6.0 0.00 0.00 0.00 72 1003.4
20260509191741 86 0 3.0 6.0 0.00 0.00 0.00 71 1003.3
20260509191639 86 353 2.0 6.0 0.00 0.00 0.00 71 1003.4
20260509191539 85 314 1.0 6.0 0.00 0.00 0.00 71 1003.4
20260509191439 85 314 2.0 6.0 0.00 0.00 0.00 71 1003.4
20260509191340 85 314 3.0 6.0 0.00 0.00 0.00 71 1003.4
20260509191239 86 329 4.0 6.0 0.00 0.00 0.00 72 1003.4
20260509191139 86 310 4.0 6.0 0.00 0.00 0.00 72 1003.4
20260509191039 86 305 3.0 5.0 0.00 0.00 0.00 72 1003.4
20260509190931 86 0 3.0 5.0 0.00 0.00 0.00 71 1003.4
20260509190832 86 281 3.0 5.0 0.00 0.00 0.00 70 1003.3
20260509190731 86 281 3.0 5.0 0.00 0.00 0.00 71 1003.3
20260509190631 86 269 4.0 5.0 0.00 0.00 0.00 71 1003.4
20260509190531 85 262 3.0 5.0 0.00 0.00 0.00 72 1003.5
20260509190433 85 295 2.0 5.0 0.00 0.00 0.00 72 1003.4
20260509190330 85 269 2.0 5.0 0.00 0.00 0.00 71 1003.4
20260509190231 85 283 4.0 5.0 0.00 0.00 0.00 73 1003.4
20260509190125 85 299 3.0 5.0 0.00 0.00 0.00 72 1003.5
20260509190025 85 39 1.0 5.0 0.00 0.00 0.00 74 1003.4
20260509185923 85 42 2.0 5.0 0.00 0.00 0.00 73 1003.4
20260509185814 84 42 3.0 5.0 0.00 0.00 0.00 73 1003.4
20260509185711 84 31 3.0 5.0 0.00 0.00 0.00 72 1003.4
20260509185610 85 8 3.0 4.0 0.00 0.00 0.00 72 1003.4
20260509185504 85 0 3.0 4.0 0.00 0.00 0.00 72 1003.5
20260509185403 85 337 3.0 5.0 0.00 0.00 0.00 72 1003.5
20260509185306 85 312 3.0 5.0 0.00 0.00 0.00 71 1003.4
20260509185203 85 102 2.0 5.0 0.00 0.00 0.00 71 1003.5
20260509185103 85 104 1.0 5.0 0.00 0.00 0.00 71 1003.4
20260509185002 85 104 0.0 5.0 0.00 0.00 0.00 71 1003.6
20260509184902 85 104 1.0 5.0 0.00 0.00 0.00 72 1003.5
20260509184804 85 104 1.0 5.0 0.00 0.00 0.00 72 1003.5
20260509184703 85 104 2.0 5.0 0.00 0.00 0.00 72 1003.5
20260509184603 85 104 3.0 5.0 0.00 0.00 0.00 72 1003.5
20260509184505 85 104 3.0 5.0 0.00 0.00 0.00 72 1003.4
20260509184403 85 106 2.0 5.0 0.00 0.00 0.00 70 1003.4
20260509184302 85 106 2.0 5.0 0.00 0.00 0.00 70 1003.5
20260509184202 85 106 3.0 5.0 0.00 0.00 0.00 70 1003.5
20260509184104 86 104 3.0 5.0 0.00 0.00 0.00 70 1003.6
20260509184004 86 102 2.0 5.0 0.00 0.00 0.00 71 1003.5
20260509183902 86 155 2.0 4.0 0.00 0.00 0.00 71 1003.6
20260509183802 86 157 1.0 4.0 0.00 0.00 0.00 71 1003.7
20260509183704 86 157 2.0 4.0 0.00 0.00 0.00 71 1003.7
20260509183603 86 157 2.0 4.0 0.00 0.00 0.00 71 1003.6
20260509183502 86 158 2.0 4.0 0.00 0.00 0.00 71 1003.8
20260509183403 86 158 1.0 4.0 0.00 0.00 0.00 71 1003.7
20260509183302 86 165 0.0 3.0 0.00 0.00 0.00 71 1003.7
20260509183202 86 165 1.0 3.0 0.00 0.00 0.00 72 1003.8
20260509183103 86 165 2.0 4.0 0.00 0.00 0.00 71 1003.7
20260509183002 86 166 1.0 4.0 0.00 0.00 0.00 71 1003.7
20260509182902 86 161 0.0 4.0 0.00 0.00 0.00 72 1003.7
20260509182802 85 159 0.0 4.0 0.00 0.00 0.00 71 1003.8
20260509182704 85 159 0.0 4.0 0.00 0.00 0.00 70 1003.8
20260509182604 86 159 1.0 4.0 0.00 0.00 0.00 71 1003.8
20260509182504 86 159 1.0 4.0 0.00 0.00 0.00 71 1003.8
20260509182402 86 238 1.0 4.0 0.00 0.00 0.00 71 1003.9
20260509182306 86 238 2.0 4.0 0.00 0.00 0.00 72 1004.0
20260509182204 86 238 3.0 4.0 0.00 0.00 0.00 72 1003.9
20260509182103 86 252 1.0 4.0 0.00 0.00 0.00 72 1003.9
20260509182002 86 145 1.0 3.0 0.00 0.00 0.00 72 1003.9
20260509181904 86 140 1.0 3.0 0.00 0.00 0.00 73 1003.9
20260509181802 85 135 0.0 3.0 0.00 0.00 0.00 72 1004.0
20260509181703 85 135 1.0 3.0 0.00 0.00 0.00 72 1003.9
20260509181604 85 134 1.0 3.0 0.00 0.00 0.00 72 1003.9
20260509181503 85 134 1.0 3.0 0.00 0.00 0.00 73 1003.9
20260509181404 85 133 0.0 4.0 0.00 0.00 0.00 72 1003.8
20260509181302 85 176 0.0 4.0 0.00 0.00 0.00 72 1003.9
20260509181204 85 176 0.0 4.0 0.00 0.00 0.00 72 1003.9
20260509181102 85 176 0.0 4.0 0.00 0.00 0.00 74 1003.9
20260509181002 85 176 0.0 4.0 0.00 0.00 0.00 74 1003.9
20260509180903 85 178 0.0 4.0 0.00 0.00 0.00 74 1004.0
20260509180802 85 178 0.0 4.0 0.00 0.00 0.00 74 1004.0
20260509180703 85 178 0.0 4.0 0.00 0.00 0.00 73 1004.1
20260509180604 85 178 2.0 4.0 0.00 0.00 0.00 73 1004.1
20260509180502 85 178 2.0 4.0 0.00 0.00 0.00 72 1004.1
20260509180403 85 164 1.0 4.0 0.00 0.00 0.00 72 1004.1
20260509180302 85 165 2.0 4.0 0.00 0.00 0.00 72 1004.2
20260509180203 85 165 2.0 4.0 0.00 0.00 0.00 73 1004.1
20260509180104 85 165 2.0 4.0 0.00 0.00 0.00 74 1004.3
20260509180004 85 166 2.0 4.0 0.00 0.00 0.00 74 1004.3
20260509175902 85 159 2.0 4.0 0.00 0.00 0.00 74 1004.3
20260509175802 85 165 2.0 4.0 0.00 0.00 0.00 74 1004.3
20260509175703 85 155 2.0 6.0 0.00 0.00 0.00 74 1004.2
20260509175602 85 155 2.0 6.0 0.00 0.00 0.00 74 1004.3
20260509175504 85 155 1.0 6.0 0.00 0.00 0.00 74 1004.3
20260509175402 84 154 1.0 6.0 0.00 0.00 0.00 74 1004.2
20260509175306 84 154 1.0 6.0 0.00 0.00 0.00 74 1004.3
20260509175202 84 154 2.0 6.0 0.00 0.00 0.00 73 1004.3
20260509175103 84 152 1.0 6.0 0.00 0.00 0.00 73 1004.3
20260509175004 84 152 2.0 6.0 0.00 0.00 0.00 74 1004.3
20260509174902 84 154 3.0 6.0 0.00 0.00 0.00 74 1004.5
20260509174803 84 149 4.0 6.0 0.00 0.00 0.00 74 1004.4
20260509174703 84 158 3.0 6.0 0.00 0.00 0.00 74 1004.4
20260509174603 83 154 2.0 6.0 0.00 0.00 0.00 75 1004.4
20260509174504 83 113 3.0 6.0 0.00 0.00 0.00 75 1004.5
20260509174404 83 113 3.0 7.0 0.00 0.00 0.00 75 1004.5
20260509174302 83 149 2.0 7.0 0.00 0.00 0.00 75 1004.5
20260509174202 83 154 3.0 7.0 0.00 0.00 0.00 75 1004.5
20260509174102 83 152 4.0 7.0 0.00 0.00 0.00 75 1004.5
20260509174004 84 144 4.0 7.0 0.00 0.00 0.00 75 1004.4
20260509173904 84 144 4.0 7.0 0.00 0.00 0.00 75 1004.4
20260509173804 84 135 3.0 7.0 0.00 0.00 0.00 76 1004.4
20260509173704 84 157 4.0 7.0 0.00 0.00 0.00 76 1004.4
20260509173603 84 165 5.0 7.0 0.00 0.00 0.00 76 1004.4
20260509173503 84 134 3.0 7.0 0.00 0.00 0.00 76 1004.4
20260509173402 83 171 2.0 7.0 0.00 0.00 0.00 76 1004.4
20260509173302 83 200 3.0 7.0 0.00 0.00 0.00 76 1004.5
20260509173202 83 199 3.0 7.0 0.00 0.00 0.00 77 1004.5
20260509173104 83 199 4.0 7.0 0.00 0.00 0.00 76 1004.5
20260509173004 83 219 3.0 7.0 0.00 0.00 0.00 76 1004.6
20260509172902 83 227 4.0 7.0 0.00 0.00 0.00 76 1004.6
20260509172804 83 145 4.0 7.0 0.00 0.00 0.00 76 1004.6
20260509172703 83 179 4.0 7.0 0.00 0.00 0.00 76 1004.7
20260509172602 83 204 5.0 7.0 0.00 0.00 0.00 76 1004.7
20260509172504 83 193 4.0 7.0 0.00 0.00 0.00 76 1004.7
20260509172402 83 176 3.0 7.0 0.00 0.00 0.00 76 1004.7
20260509172306 83 217 3.0 7.0 0.00 0.00 0.00 77 1004.7
20260509172203 83 169 3.0 7.0 0.00 0.00 0.00 76 1004.7
20260509172103 83 173 4.0 7.0 0.00 0.00 0.00 77 1004.6
20260509172000 83 180 3.0 7.0 0.00 0.00 0.00 77 1004.6
20260509171900 83 175 2.0 6.0 0.00 0.00 0.00 77 1004.6
20260509171749 83 148 3.0 7.0 0.00 0.00 0.00 77 1004.6
20260509171639 83 145 4.0 10.0 0.00 0.00 0.00 78 1004.6
20260509171538 83 202 3.0 10.0 0.00 0.00 0.00 77 1004.7
20260509171438 83 180 2.0 10.0 0.00 0.00 0.00 78 1004.6
20260509171338 83 166 4.0 10.0 0.00 0.00 0.00 78 1004.6
20260509171236 83 127 4.0 10.0 0.00 0.00 0.00 78 1004.6
20260509171137 83 120 4.0 10.0 0.00 0.00 0.00 78 1004.6
20260509171038 83 144 3.0 10.0 0.00 0.00 0.00 78 1004.6
20260509170937 83 149 4.0 10.0 0.00 0.00 0.00 78 1004.6
20260509170837 83 103 6.0 10.0 0.00 0.00 0.00 79 1004.6
20260509170736 83 109 5.0 10.0 0.00 0.00 0.00 79 1004.5
20260509170639 83 118 4.0 9.0 0.00 0.00 0.00 78 1004.5
20260509170538 83 162 3.0 9.0 0.00 0.00 0.00 80 1004.5
20260509170438 83 166 4.0 9.0 0.00 0.00 0.00 80 1004.5
20260509170339 83 120 5.0 9.0 0.00 0.00 0.00 80 1004.4
20260509170237 82 123 4.0 9.0 0.00 0.00 0.00 81 1004.4
20260509170137 82 148 3.0 7.0 0.00 0.00 0.00 82 1004.4
20260509170038 82 113 4.0 7.0 0.00 0.00 0.00 82 1004.5
20260509165939 81 111 3.0 7.0 0.00 0.00 0.00 82 1004.4
20260509165839 81 134 2.0 6.0 0.00 0.00 0.00 82 1004.5
20260509165738 81 162 3.0 6.0 0.00 0.00 0.00 82 1004.5
20260509165638 81 183 4.0 6.0 0.00 0.00 0.00 82 1004.5
20260509165536 81 147 4.0 6.0 0.00 0.00 0.00 82 1004.6
20260509165437 81 133 4.0 5.0 0.00 0.00 0.00 82 1004.6
20260509165337 81 117 3.0 5.0 0.00 0.00 0.00 82 1004.7
20260509165236 81 51 1.0 3.0 0.00 0.00 0.00 82 1004.7
20260509165137 81 48 0.0 3.0 0.00 0.00 0.00 82 1004.8
20260509165038 81 45 0.0 3.0 0.00 0.00 0.00 82 1004.8
20260509164937 81 44 1.0 3.0 0.00 0.00 0.00 83 1004.8
20260509164837 80 44 2.0 3.0 0.00 0.00 0.00 83 1004.8
20260509164736 80 44 2.0 3.0 0.00 0.00 0.00 83 1004.7
20260509164637 80 44 1.0 3.0 0.00 0.00 0.00 83 1004.8
20260509164536 80 0 0.0 3.0 0.00 0.00 0.00 83 1004.8
20260509164436 80 0 1.0 3.0 0.00 0.00 0.00 84 1004.7
20260509164337 80 0 1.0 3.0 0.00 0.00 0.00 84 1004.7
20260509164235 80 358 0.0 3.0 0.00 0.00 0.00 84 1004.7
20260509164137 79 358 0.0 3.0 0.00 0.00 0.00 84 1004.7
20260509164037 79 358 0.0 3.0 0.00 0.00 0.00 84 1004.7
20260509163938 79 358 0.0 3.0 0.00 0.00 0.00 84 1004.6
20260509163835 79 358 0.0 3.0 0.00 0.00 0.00 84 1004.7
20260509163738 79 358 0.0 3.0 0.00 0.00 0.00 84 1004.7
20260509163637 79 358 0.0 3.0 0.00 0.00 0.00 85 1004.8
20260509163536 79 358 0.0 3.0 0.00 0.00 0.00 85 1004.8
20260509163437 79 358 1.0 3.0 0.00 0.00 0.00 85 1004.7
20260509163336 79 0 0.0 3.0 0.00 0.00 0.00 85 1004.8
20260509163235 79 0 1.0 3.0 0.00 0.00 0.00 85 1004.8
20260509163136 79 0 1.0 3.0 0.00 0.00 0.00 85 1004.8
20260509163036 79 0 1.0 4.0 0.00 0.00 0.00 85 1004.8
20260509162936 79 0 0.0 4.0 0.00 0.00 0.00 85 1004.8
20260509162835 79 0 1.0 4.0 0.00 0.00 0.00 85 1004.9
20260509162737 79 0 1.0 4.0 0.00 0.00 0.00 85 1004.8
20260509162636 79 0 1.0 4.0 0.00 0.00 0.00 85 1004.8
20260509162536 79 0 1.0 4.0 0.00 0.00 0.00 86 1004.9
20260509162436 79 0 1.0 4.0 0.00 0.00 0.00 86 1004.8
20260509162335 79 0 1.0 4.0 0.00 0.00 0.00 86 1004.8
20260509162235 79 0 2.0 4.0 0.00 0.00 0.00 86 1004.9
20260509162135 79 0 2.0 4.0 0.00 0.00 0.00 86 1004.8
20260509162035 78 0 0.0 4.0 0.00 0.00 0.00 85 1004.9
20260509161935 78 0 0.0 4.0 0.00 0.00 0.00 85 1004.9
20260509161836 78 0 0.0 4.0 0.00 0.00 0.00 85 1004.9
20260509161737 78 0 0.0 4.0 0.00 0.00 0.00 86 1004.9
20260509161636 78 0 0.0 4.0 0.00 0.00 0.00 86 1005.0
20260509161535 78 0 1.0 4.0 0.00 0.00 0.00 86 1005.0
20260509161436 78 0 2.0 4.0 0.00 0.00 0.00 86 1005.0
20260509161336 78 0 2.0 4.0 0.00 0.00 0.00 86 1005.0
20260509161235 78 0 0.0 2.0 0.00 0.00 0.00 85 1005.0
20260509161135 78 0 0.0 2.0 0.00 0.00 0.00 85 1005.1
20260509161035 78 0 0.0 4.0 0.00 0.00 0.00 85 1005.0
20260509160936 78 0 1.0 4.0 0.00 0.00 0.00 85 1005.1
20260509160835 78 0 1.0 4.0 0.00 0.00 0.00 85 1005.0
20260509160735 78 0 0.0 4.0 0.00 0.00 0.00 86 1005.1
20260509160636 78 0 0.0 4.0 0.00 0.00 0.00 86 1005.1
20260509160535 78 0 0.0 5.0 0.00 0.00 0.00 86 1005.1
20260509160435 78 0 0.0 5.0 0.00 0.00 0.00 86 1005.1
20260509160336 78 0 0.0 5.0 0.00 0.00 0.00 86 1005.0
20260509160235 78 0 2.0 5.0 0.00 0.00 0.00 86 1004.9
20260509160135 78 0 3.0 5.0 0.00 0.00 0.00 86 1004.9
20260509160037 78 0 3.0 5.0 0.00 0.00 0.00 86 1005.0
20260509155934 78 0 2.0 5.0 0.00 0.00 0.00 86 1005.0
20260509155834 78 14 2.0 5.0 0.00 0.00 0.00 86 1005.0
20260509155734 78 14 3.0 5.0 0.00 0.00 0.00 86 1005.0
20260509155636 78 14 2.0 5.0 0.00 0.00 0.00 86 1005.0
20260509155537 78 166 1.0 4.0 0.00 0.00 0.00 86 1005.0
20260509155435 78 169 1.0 2.0 0.00 0.00 0.00 86 1005.0
20260509155336 78 169 1.0 2.0 0.00 0.00 0.00 86 1005.0
20260509155236 78 171 0.0 0.0 0.00 0.00 0.00 86 1005.1
20260509155135 78 166 0.0 0.0 0.00 0.00 0.00 87 1004.9
20260509155036 78 168 0.0 0.0 0.00 0.00 0.00 86 1005.0
20260509154936 78 168 0.0 0.0 0.00 0.00 0.00 86 1005.0
20260509154837 78 168 0.0 0.0 0.00 0.00 0.00 87 1005.0
20260509154734 78 168 0.0 0.0 0.00 0.00 0.00 86 1005.0
20260509154634 78 168 0.0 0.0 0.00 0.00 0.00 86 1005.0
20260509154536 78 168 0.0 0.0 0.00 0.00 0.00 86 1005.0
20260509154434 78 168 0.0 0.0 0.00 0.00 0.00 86 1004.9
20260509154335 78 168 0.0 0.0 0.00 0.00 0.00 86 1005.0
20260509154235 78 168 0.0 0.0 0.00 0.00 0.00 86 1004.9
20260509154134 78 168 0.0 0.0 0.00 0.00 0.00 86 1005.0
20260509154035 78 168 0.0 0.0 0.00 0.00 0.00 86 1005.0
20260509153935 78 168 0.0 0.0 0.00 0.00 0.00 86 1005.0
20260509153836 78 168 0.0 0.0 0.00 0.00 0.00 86 1005.1
20260509153734 78 168 0.0 0.0 0.00 0.00 0.00 86 1005.0
20260509153635 78 168 0.0 0.0 0.00 0.00 0.00 86 1005.1
20260509153535 78 168 0.0 0.0 0.00 0.00 0.00 86 1005.0
20260509153434 78 168 0.0 0.0 0.00 0.00 0.00 86 1005.0
20260509153335 78 168 0.0 0.0 0.00 0.00 0.00 86 1005.0
20260509153234 78 168 0.0 0.0 0.00 0.00 0.00 86 1004.9
20260509153134 78 168 0.0 0.0 0.00 0.00 0.00 86 1004.9
20260509153034 78 168 0.0 0.0 0.00 0.00 0.00 86 1004.9
20260509152937 78 168 0.0 0.0 0.00 0.00 0.00 86 1004.9
20260509152836 78 169 0.0 0.0 0.00 0.00 0.00 86 1004.9
20260509152734 78 173 0.0 0.0 0.00 0.00 0.00 87 1004.9
20260509152634 78 175 0.0 0.0 0.00 0.00 0.00 87 1004.9
20260509152534 78 175 0.0 0.0 0.00 0.00 0.00 87 1004.8
20260509152436 78 175 0.0 0.0 0.00 0.00 0.00 87 1004.8
20260509152334 78 175 0.0 0.0 0.00 0.00 0.00 87 1004.7
20260509152234 78 175 0.0 0.0 0.00 0.00 0.00 87 1004.8
20260509152134 78 175 0.0 0.0 0.00 0.00 0.00 87 1004.8
20260509152034 78 175 0.0 0.0 0.00 0.00 0.00 87 1004.7
20260509151936 78 175 0.0 0.0 0.00 0.00 0.00 87 1004.7
20260509151834 78 175 0.0 0.0 0.00 0.00 0.00 87 1004.8
20260509151734 78 175 0.0 0.0 0.00 0.00 0.00 87 1004.9
20260509151635 78 175 0.0 0.0 0.00 0.00 0.00 87 1004.9
20260509151534 78 175 0.0 0.0 0.00 0.00 0.00 87 1004.8
20260509151436 78 175 0.0 0.0 0.00 0.00 0.00 87 1004.9
20260509151334 78 175 0.0 0.0 0.00 0.00 0.00 88 1004.9
20260509151235 78 175 0.0 0.0 0.00 0.00 0.00 88 1004.9
20260509151133 78 175 0.0 0.0 0.00 0.00 0.00 88 1005.0
20260509151034 78 175 0.0 0.0 0.00 0.00 0.00 87 1004.9
20260509150934 78 175 0.0 0.0 0.00 0.00 0.00 88 1004.9
20260509150833 78 175 0.0 0.0 0.00 0.00 0.00 88 1004.9
20260509150733 78 175 0.0 0.0 0.00 0.00 0.00 87 1004.9
20260509150634 78 175 0.0 0.0 0.00 0.00 0.00 88 1004.9
20260509150536 78 175 0.0 0.0 0.00 0.00 0.00 88 1004.9
20260509150436 78 175 0.0 0.0 0.00 0.00 0.00 87 1004.8
20260509150335 78 175 0.0 0.0 0.00 0.00 0.00 88 1004.8
20260509150234 78 176 0.0 0.0 0.00 0.00 0.00 88 1004.8
20260509150132 78 176 0.0 0.0 0.00 0.00 0.00 88 1004.7
20260509150034 78 176 0.0 0.0 0.00 0.00 0.00 88 1004.7
20260509145935 78 176 0.0 0.0 0.00 0.00 0.00 88 1004.7
20260509145833 78 176 0.0 0.0 0.00 0.00 0.00 88 1004.7
20260509145733 77 176 0.0 0.0 0.00 0.00 0.00 89 1004.7
20260509145633 77 176 0.0 0.0 0.00 0.00 0.00 89 1004.6
20260509145533 77 176 0.0 0.0 0.00 0.00 0.00 89 1004.6
20260509145435 77 176 0.0 0.0 0.00 0.00 0.00 89 1004.6
20260509145335 77 176 0.0 0.0 0.00 0.00 0.00 89 1004.6
20260509145234 77 176 0.0 0.0 0.00 0.00 0.00 89 1004.5
20260509145133 77 176 0.0 0.0 0.00 0.00 0.00 89 1004.5
20260509145034 77 176 0.0 0.0 0.00 0.00 0.00 89 1004.5
20260509144933 77 176 0.0 0.0 0.00 0.00 0.00 89 1004.5
20260509144833 77 176 0.0 0.0 0.00 0.00 0.00 89 1004.4
20260509144734 77 176 0.0 0.0 0.00 0.00 0.00 89 1004.5
20260509144634 77 176 0.0 0.0 0.00 0.00 0.00 89 1004.4
20260509144533 77 176 0.0 0.0 0.00 0.00 0.00 89 1004.4
20260509144433 77 176 0.0 0.0 0.00 0.00 0.00 89 1004.3
20260509144333 77 176 0.0 0.0 0.00 0.00 0.00 89 1004.3
20260509144233 77 176 0.0 0.0 0.00 0.00 0.00 90 1004.3
20260509144133 77 176 0.0 0.0 0.00 0.00 0.00 90 1004.3
20260509144033 77 176 0.0 0.0 0.00 0.00 0.00 90 1004.3
20260509143933 77 176 0.0 0.0 0.00 0.00 0.00 90 1004.2
20260509143834 76 176 0.0 0.0 0.00 0.00 0.00 90 1004.1
20260509143734 76 176 0.0 0.0 0.00 0.00 0.00 90 1004.1
20260509143633 76 176 0.0 0.0 0.00 0.00 0.00 90 1004.2
20260509143533 76 176 0.0 0.0 0.00 0.00 0.00 90 1004.2
20260509143432 76 176 0.0 0.0 0.00 0.00 0.00 90 1004.3
20260509143333 76 176 0.0 0.0 0.00 0.00 0.00 90 1004.4
20260509143233 76 176 0.0 0.0 0.00 0.00 0.00 90 1004.4
20260509143133 76 176 0.0 0.0 0.00 0.00 0.00 90 1004.4
20260509143033 76 176 0.0 0.0 0.00 0.00 0.00 91 1004.4
20260509142935 76 176 0.0 0.0 0.00 0.00 0.00 91 1004.4
20260509142833 76 176 0.0 0.0 0.00 0.00 0.00 90 1004.4
20260509142736 76 176 0.0 0.0 0.00 0.00 0.00 91 1004.3
20260509142634 76 176 0.0 0.0 0.00 0.00 0.00 91 1004.3
20260509142532 76 176 0.0 0.0 0.00 0.00 0.00 91 1004.2
20260509142435 76 176 0.0 0.0 0.00 0.00 0.00 91 1004.1
20260509142332 76 176 0.0 0.0 0.00 0.00 0.00 91 1004.2
20260509142233 76 176 0.0 0.0 0.00 0.00 0.00 91 1004.1
20260509142133 76 176 0.0 0.0 0.00 0.00 0.00 91 1004.1
20260509142033 76 176 0.0 0.0 0.00 0.00 0.00 91 1004.1
20260509141932 76 176 0.0 0.0 0.00 0.00 0.00 91 1004.1
20260509141832 76 176 0.0 0.0 0.00 0.00 0.00 91 1004.1
20260509141733 76 176 0.0 0.0 0.00 0.00 0.00 91 1004.1
20260509141632 76 176 0.0 0.0 0.00 0.00 0.00 92 1004.1
20260509141533 76 176 0.0 0.0 0.00 0.00 0.00 92 1004.1
20260509141434 76 176 0.0 1.0 0.00 0.00 0.00 92 1004.2
20260509141332 76 176 0.0 1.0 0.00 0.00 0.00 92 1004.1
20260509141233 76 176 0.0 1.0 0.00 0.00 0.00 92 1004.1
20260509141132 76 176 0.0 1.0 0.00 0.00 0.00 92 1004.0
20260509141032 76 176 0.0 1.0 0.00 0.00 0.00 92 1004.0
20260509140933 76 176 0.0 1.0 0.00 0.00 0.00 92 1004.0
20260509140833 76 176 0.0 1.0 0.00 0.00 0.00 92 1004.0
20260509140732 76 176 0.0 1.0 0.00 0.00 0.00 92 1004.0
20260509140632 76 176 0.0 3.0 0.00 0.00 0.00 92 1004.1
20260509140533 76 176 0.0 3.0 0.00 0.00 0.00 92 1004.1
20260509140433 76 176 0.0 3.0 0.00 0.00 0.00 92 1004.2
20260509140332 76 176 0.0 3.0 0.00 0.00 0.00 92 1004.1
20260509140232 76 176 0.0 3.0 0.00 0.00 0.00 92 1004.0
20260509140133 76 176 0.0 3.0 0.00 0.00 0.00 92 1004.0
20260509140033 76 176 0.0 3.0 0.00 0.00 0.00 92 1003.9
20260509135934 76 176 0.0 3.0 0.00 0.00 0.00 92 1003.9
20260509135832 76 176 1.0 3.0 0.00 0.00 0.00 92 1003.9
20260509135732 76 176 1.0 3.0 0.00 0.00 0.00 93 1003.9
20260509135633 76 182 0.0 1.0 0.00 0.00 0.00 93 1003.8
20260509135532 76 183 0.0 1.0 0.00 0.00 0.00 93 1003.9
20260509135432 76 161 0.0 0.0 0.00 0.00 0.00 93 1004.0
20260509135333 76 161 0.0 0.0 0.00 0.00 0.00 93 1004.0
20260509135233 75 161 0.0 0.0 0.00 0.00 0.00 93 1004.1
20260509135133 75 161 0.0 0.0 0.00 0.00 0.00 93 1004.1
20260509135032 75 161 0.0 0.0 0.00 0.00 0.00 93 1004.0
20260509134932 75 161 0.0 1.0 0.00 0.00 0.00 93 1004.1
20260509134832 76 161 0.0 2.0 0.00 0.00 0.00 93 1004.1
20260509134734 75 161 0.0 2.0 0.00 0.00 0.00 93 1004.1
20260509134633 75 161 0.0 3.0 0.00 0.00 0.00 93 1004.1
20260509134532 75 161 0.0 3.0 0.00 0.00 0.00 93 1004.2
20260509134433 75 161 0.0 3.0 0.00 0.00 0.00 93 1004.2
20260509134332 76 161 0.0 3.0 0.00 0.00 0.00 93 1004.2
20260509134232 75 161 0.0 3.0 0.00 0.00 0.00 93 1004.3
20260509134132 75 161 0.0 3.0 0.00 0.00 0.00 93 1004.4
20260509134035 75 161 1.0 3.0 0.00 0.00 0.00 93 1004.4
20260509133932 76 161 1.0 3.0 0.00 0.00 0.00 93 1004.4
20260509133832 76 162 1.0 3.0 0.00 0.00 0.00 93 1004.4
20260509133732 76 162 1.0 3.0 0.00 0.00 0.00 93 1004.4
20260509133632 76 169 0.0 2.0 0.00 0.00 0.00 93 1004.4
20260509133532 76 171 0.0 2.0 0.00 0.00 0.00 93 1004.5
20260509133432 75 171 0.0 2.0 0.00 0.00 0.00 93 1004.5
20260509133331 76 171 0.0 2.0 0.00 0.00 0.00 93 1004.6
20260509133232 75 171 0.0 2.0 0.00 0.00 0.00 93 1004.6
20260509133132 76 171 1.0 2.0 0.00 0.00 0.00 93 1004.6
20260509133031 76 171 1.0 3.0 0.00 0.00 0.00 93 1004.5
20260509132931 76 171 1.0 3.0 0.00 0.00 0.00 93 1004.5
20260509132832 76 171 1.0 3.0 0.00 0.00 0.00 93 1004.5
20260509132733 75 171 2.0 3.0 0.00 0.00 0.00 93 1004.5
20260509132632 75 171 1.0 3.0 0.00 0.00 0.00 94 1004.6
20260509132532 75 172 1.0 3.0 0.00 0.00 0.00 94 1004.7
20260509132431 75 172 1.0 3.0 0.00 0.00 0.00 94 1004.8
20260509132333 75 172 1.0 3.0 0.00 0.00 0.00 94 1004.8
20260509132231 75 172 1.0 3.0 0.00 0.00 0.00 94 1004.8
20260509132131 75 172 1.0 3.0 0.00 0.00 0.00 94 1004.8
20260509132032 75 172 1.0 3.0 0.00 0.00 0.00 94 1004.8
20260509131933 75 172 1.0 3.0 0.00 0.00 0.00 94 1004.8
20260509131831 75 172 1.0 3.0 0.00 0.00 0.00 94 1004.8
20260509131733 75 172 2.0 3.0 0.00 0.00 0.00 94 1004.7
20260509131631 75 176 1.0 3.0 0.00 0.00 0.00 94 1004.8
20260509131531 75 217 0.0 2.0 0.00 0.00 0.00 94 1004.9
20260509131432 75 217 1.0 2.0 0.00 0.00 0.00 94 1004.9
20260509131331 75 217 1.0 2.0 0.00 0.00 0.00 94 1005.0
20260509131231 75 217 0.0 3.0 0.00 0.00 0.00 94 1005.0
20260509131132 75 259 0.0 3.0 0.00 0.00 0.00 94 1004.9
20260509131031 75 259 0.0 3.0 0.00 0.00 0.00 94 1004.9
20260509130932 75 259 0.0 3.0 0.00 0.00 0.00 94 1004.9
20260509130832 75 259 0.0 3.0 0.00 0.00 0.00 94 1004.9
20260509130732 75 259 1.0 3.0 0.00 0.00 0.00 94 1004.8
20260509130629 75 259 1.0 3.0 0.00 0.00 0.00 94 1004.8
20260509130526 75 259 1.0 3.0 0.00 0.00 0.00 94 1004.8
20260509130425 75 261 2.0 3.0 0.00 0.00 0.00 94 1004.8
20260509130324 75 285 2.0 3.0 0.00 0.00 0.00 94 1004.8
20260509130214 75 295 1.0 3.0 0.00 0.00 0.00 94 1004.8
20260509130106 75 295 0.0 1.0 0.00 0.00 0.00 94 1005.0
20260509130003 75 299 0.0 0.0 0.00 0.00 0.00 94 1005.0
20260509125902 75 299 0.0 0.0 0.00 0.00 0.00 94 1005.1
20260509125803 75 299 0.0 0.0 0.00 0.00 0.00 94 1005.1
20260509125704 75 299 0.0 0.0 0.00 0.00 0.00 94 1005.1
20260509125603 75 299 0.0 0.0 0.00 0.00 0.00 94 1005.1
20260509125503 75 300 0.0 0.0 0.00 0.00 0.00 94 1005.0
20260509125402 75 300 0.0 0.0 0.00 0.00 0.00 94 1005.1
20260509125307 75 300 0.0 0.0 0.00 0.00 0.00 94 1005.0
20260509125202 75 300 0.0 0.0 0.00 0.00 0.00 94 1004.9
20260509125104 75 300 0.0 0.0 0.00 0.00 0.00 94 1005.0
20260509125004 75 300 0.0 0.0 0.00 0.00 0.00 94 1005.0
20260509124902 75 300 0.0 1.0 0.00 0.00 0.00 94 1004.9
20260509124802 75 300 0.0 1.0 0.00 0.00 0.00 94 1004.9
20260509124702 75 300 0.0 1.0 0.00 0.00 0.00 94 1004.7
20260509124604 75 300 0.0 1.0 0.00 0.00 0.00 94 1004.8
20260509124502 74 300 0.0 1.0 0.00 0.00 0.00 94 1004.7
20260509124402 74 300 0.0 1.0 0.00 0.00 0.00 94 1004.6
20260509124254 74 300 0.0 1.0 0.00 0.00 0.00 94 1004.6
20260509124141 74 300 0.0 1.0 0.00 0.00 0.00 94 1004.6
20260509124035 74 300 0.0 1.0 0.00 0.00 0.00 94 1004.6
20260509123933 74 300 0.0 1.0 0.00 0.00 0.00 94 1004.7
20260509123831 74 300 0.0 1.0 0.00 0.00 0.00 94 1004.7
20260509123732 74 300 0.0 1.0 0.00 0.00 0.00 94 1004.7
20260509123633 74 300 0.0 1.0 0.00 0.00 0.00 94 1004.8
20260509123530 74 300 0.0 1.0 0.00 0.00 0.00 94 1004.7
20260509123432 74 300 0.0 1.0 0.00 0.00 0.00 94 1004.7
20260509123332 74 300 0.0 1.0 0.00 0.00 0.00 94 1004.7
20260509123231 74 300 0.0 1.0 0.00 0.00 0.00 94 1004.7
20260509123131 74 300 0.0 1.0 0.00 0.00 0.00 94 1004.7
20260509123030 74 300 1.0 1.0 0.00 0.00 0.00 94 1004.7
20260509122930 74 302 1.0 1.0 0.00 0.00 0.00 94 1004.7
20260509122830 74 303 0.0 1.0 0.00 0.00 0.00 94 1004.7
20260509122731 74 306 1.0 1.0 0.00 0.00 0.00 94 1004.7
20260509122630 74 306 1.0 1.0 0.00 0.00 0.00 94 1004.6
20260509122530 74 309 0.0 2.0 0.00 0.00 0.00 94 1004.6
20260509122431 74 309 0.0 2.0 0.00 0.00 0.00 94 1004.5
20260509122330 74 309 0.0 2.0 0.00 0.00 0.00 94 1004.6
20260509122231 74 309 0.0 2.0 0.00 0.00 0.00 94 1004.6
20260509122131 74 309 0.0 2.0 0.00 0.00 0.00 94 1004.5
20260509122032 74 309 0.0 2.0 0.00 0.00 0.00 94 1004.6
20260509121930 74 309 0.0 2.0 0.00 0.00 0.00 94 1004.7
20260509121830 74 309 0.0 2.0 0.00 0.00 0.00 94 1004.7
20260509121731 74 310 1.0 2.0 0.00 0.00 0.00 94 1004.7
20260509121630 74 334 0.0 2.0 0.00 0.00 0.00 94 1004.7
20260509121532 74 336 0.0 1.0 0.00 0.00 0.00 94 1004.7
20260509121432 74 336 0.0 1.0 0.00 0.00 0.00 94 1004.7
20260509121331 74 338 1.0 1.0 0.00 0.00 0.00 94 1004.7
20260509121231 74 338 0.0 1.0 0.00 0.00 0.00 94 1004.6
20260509121130 74 338 0.0 1.0 0.00 0.00 0.00 94 1004.7
20260509121029 74 340 0.0 0.0 0.00 0.00 0.00 94 1004.7
20260509120929 74 340 0.0 0.0 0.00 0.00 0.00 94 1004.7
20260509120832 74 340 0.0 0.0 0.00 0.00 0.00 94 1004.7
20260509120732 74 340 0.0 0.0 0.00 0.00 0.00 94 1004.7
20260509120631 74 340 0.0 0.0 0.00 0.00 0.00 94 1004.7
20260509120532 74 340 0.0 0.0 0.00 0.00 0.00 94 1004.7
20260509120431 74 340 0.0 0.0 0.00 0.00 0.00 94 1004.7
20260509120329 74 340 0.0 0.0 0.00 0.00 0.00 94 1004.7
20260509120230 74 340 0.0 0.0 0.00 0.00 0.00 94 1004.7
20260509120131 74 340 0.0 0.0 0.00 0.00 0.00 94 1004.5
20260509120031 74 340 0.0 0.0 0.00 0.00 0.00 94 1004.5
20260509115931 74 340 0.0 0.0 0.00 0.00 0.00 94 1004.5
20260509115831 74 340 0.0 0.0 0.00 0.00 0.00 94 1004.4
20260509115730 74 340 0.0 0.0 0.00 0.00 0.00 94 1004.4
20260509115630 74 340 0.0 0.0 0.00 0.00 0.00 94 1004.4
20260509115530 74 340 0.0 0.0 0.00 0.00 0.00 94 1004.4
20260509115430 74 340 0.0 0.0 0.00 0.00 0.00 94 1004.5
20260509115330 74 340 0.0 0.0 0.00 0.00 0.00 94 1004.5
20260509115230 74 340 0.0 0.0 0.00 0.00 0.00 94 1004.5
20260509115130 74 340 0.0 0.0 0.00 0.00 0.00 94 1004.5
20260509115029 74 340 0.0 0.0 0.00 0.00 0.00 94 1004.6
20260509114930 74 340 0.0 0.0 0.00 0.00 0.00 94 1004.5